Observation data for Crowell on 03/13/2018      Previous  Date  Next       Current Mesonet Observations  Soil Data  Daily Summary Page  Observations in Plain Language
KCR1 130501Z 13004KT 07/M05 A3028 RMK A01 T00731048  RH  042%=      5-min Rain = 0
KCR1 130502Z 13004KT 07/M05 A3028 RMK A01 T00731048  RH  042%=      5-min Rain = 0
KCR1 130503Z 14003KT 07/M05 A3028 RMK A01 T00731048  RH  042%=      5-min Rain = 0
KCR1 130504Z 14003KT 07/M05 A3028 RMK A01 T00731048  RH  042%=      5-min Rain = 0
KCR1 130505Z 15003KT 07/M05 A3028 RMK A01 T00731047  RH  042%=      5-min Rain = 0
KCR1 130506Z 15003KT 07/M05 A3028 RMK A01 T00731048  RH  042%=      5-min Rain = 0
KCR1 130507Z 15003KT 07/M05 A3028 RMK A01 T00721048  RH  042%=      5-min Rain = 0
KCR1 130508Z 15003KT 07/M05 A3028 RMK A01 T00731048  RH  042%=      5-min Rain = 0
KCR1 130509Z 15003KT 07/M05 A3028 RMK A01 T00741048  RH  042%=      5-min Rain = 0
KCR1 130510Z 14003KT 07/M05 A3028 RMK A01 T00741048  RH  042%=      5-min Rain = 0
KCR1 130511Z 14002KT 07/M05 A3028 RMK A01 T00741048  RH  041%=      5-min Rain = 0
KCR1 130512Z 15003KT 07/M05 A3028 RMK A01 T00741048  RH  041%=      5-min Rain = 0
KCR1 130513Z 15003KT 07/M05 A3028 RMK A01 T00741048  RH  041%=      5-min Rain = 0
KCR1 130514Z 14003KT 07/M05 A3028 RMK A01 T00741049  RH  041%=      5-min Rain = 0
KCR1 130515Z 14003KT 08/M05 A3028 RMK A01 T00751048  RH  041%=      5-min Rain = 0
KCR1 130516Z 14003KT 07/M05 A3028 RMK A01 T00741048  RH  041%=      5-min Rain = 0
KCR1 130517Z 14003KT 07/M05 A3028 RMK A01 T00741048  RH  041%=      5-min Rain = 0
KCR1 130518Z 14003KT 07/M05 A3028 RMK A01 T00741048  RH  042%=      5-min Rain = 0
KCR1 130519Z 14003KT 07/M05 A3028 RMK A01 T00741048  RH  042%=      5-min Rain = 0
KCR1 130520Z 14003KT 07/M05 A3028 RMK A01 T00741048  RH  042%=      5-min Rain = 0
KCR1 130521Z 14003KT 07/M05 A3028 RMK A01 T00741048  RH  042%=      5-min Rain = 0
KCR1 130522Z 14003KT 07/M05 A3028 RMK A01 T00731048  RH  042%=      5-min Rain = 0
KCR1 130523Z 13004KT 07/M05 A3028 RMK A01 T00731048  RH  042%=      5-min Rain = 0
KCR1 130524Z 13004KT 07/M05 A3028 RMK A01 T00731048  RH  042%=      5-min Rain = 0
KCR1 130525Z 13004KT 07/M05 A3028 RMK A01 T00731049  RH  042%=      5-min Rain = 0
KCR1 130526Z 12004KT 07/M05 A3028 RMK A01 T00721049  RH  042%=      5-min Rain = 0
KCR1 130527Z 12004KT 07/M05 A3028 RMK A01 T00721049  RH  042%=      5-min Rain = 0
KCR1 130528Z 12004KT 07/M05 A3028 RMK A01 T00721048  RH  042%=      5-min Rain = 0
KCR1 130529Z 12004KT 07/M05 A3028 RMK A01 T00721048  RH  042%=      5-min Rain = 0
KCR1 130530Z 12004KT 07/M05 A3028 RMK A01 T00721048  RH  042%=      5-min Rain = 0
KCR1 130531Z 12004KT 07/M05 A3028 RMK A01 T00711048  RH  042%=      5-min Rain = 0
KCR1 130532Z 12004KT 07/M05 A3028 RMK A01 T00711048  RH  042%=      5-min Rain = 0
KCR1 130533Z 13004KT 07/M05 A3028 RMK A01 T00711049  RH  042%=      5-min Rain = 0
KCR1 130534Z 13004KT 07/M05 A3028 RMK A01 T00701048  RH  043%=      5-min Rain = 0
KCR1 130535Z 13004KT 07/M05 A3028 RMK A01 T00701049  RH  043%=      5-min Rain = 0
KCR1 130536Z 13003KT 07/M05 A3028 RMK A01 T00691049  RH  043%=      5-min Rain = 0
KCR1 130537Z 13003KT 07/M05 A3028 RMK A01 T00691049  RH  043%=      5-min Rain = 0
KCR1 130538Z 14003KT 07/M05 A3028 RMK A01 T00681049  RH  043%=      5-min Rain = 0
KCR1 130539Z 14003KT 07/M05 A3028 RMK A01 T00681049  RH  043%=      5-min Rain = 0
KCR1 130540Z 14003KT 07/M05 A3028 RMK A01 T00681049  RH  043%=      5-min Rain = 0
KCR1 130541Z 13003KT 07/M05 A3028 RMK A01 T00671049  RH  043%=      5-min Rain = 0
KCR1 130542Z 14003KT 07/M05 A3028 RMK A01 T00671049  RH  043%=      5-min Rain = 0
KCR1 130543Z 14003KT 07/M05 A3028 RMK A01 T00671049  RH  043%=      5-min Rain = 0
KCR1 130544Z 14004KT 07/M05 A3028 RMK A01 T00671048  RH  043%=      5-min Rain = 0
KCR1 130545Z 14004KT 07/M05 A3028 RMK A01 T00671049  RH  043%=      5-min Rain = 0
KCR1 130546Z 14004KT 07/M05 A3028 RMK A01 T00671049  RH  044%=      5-min Rain = 0
KCR1 130547Z 14004KT 07/M05 A3028 RMK A01 T00661049  RH  044%=      5-min Rain = 0
KCR1 130548Z 14004KT 07/M05 A3028 RMK A01 T00661048  RH  044%=      5-min Rain = 0
KCR1 130549Z 14004KT 07/M05 A3028 RMK A01 T00661049  RH  044%=      5-min Rain = 0
KCR1 130550Z 14004KT 07/M05 A3028 RMK A01 T00661048  RH  044%=      5-min Rain = 0
KCR1 130551Z 14004KT 07/M05 A3028 RMK A01 T00661048  RH  044%=      5-min Rain = 0
KCR1 130552Z 14004KT 07/M05 A3028 RMK A01 T00661048  RH  044%=      5-min Rain = 0
KCR1 130553Z 14004KT 07/M05 A3028 RMK A01 T00661048  RH  044%=      5-min Rain = 0
KCR1 130554Z 14004KT 07/M05 A3028 RMK A01 T00661048  RH  044%=      5-min Rain = 0
KCR1 130555Z 15004KT 07/M05 A3028 RMK A01 T00651048  RH  044%=      5-min Rain = 0
KCR1 130556Z 15004KT 07/M05 A3028 RMK A01 T00651048  RH  044%=      5-min Rain = 0
KCR1 130557Z 15003KT 07/M05 A3028 RMK A01 T00651048  RH  044%=      5-min Rain = 0
KCR1 130558Z 15003KT 06/M05 A3028 RMK A01 T00641048  RH  044%=      5-min Rain = 0
KCR1 130559Z 16003KT 06/M05 A3028 RMK A01 T00641048  RH  045%=      5-min Rain = 0
KCR1 130600Z 16003KT 06/M05 A3028 RMK A01 T00641048  RH  045%=      5-min Rain = 0
KCR1 130601Z 16003KT 06/M05 A3027 RMK A01 T00641048  RH  045%=      5-min Rain = 0
KCR1 130602Z 15003KT 06/M05 A3027 RMK A01 T00641048  RH  045%=      5-min Rain = 0
KCR1 130603Z 15003KT 06/M05 A3027 RMK A01 T00641047  RH  045%=      5-min Rain = 0
KCR1 130604Z 15003KT 06/M05 A3027 RMK A01 T00641047  RH  045%=      5-min Rain = 0
KCR1 130605Z 15003KT 06/M05 A3027 RMK A01 T00641047  RH  045%=      5-min Rain = 0
KCR1 130606Z 15003KT 06/M05 A3027 RMK A01 T00641047  RH  045%=      5-min Rain = 0
KCR1 130607Z 14003KT 06/M05 A3027 RMK A01 T00641047  RH  045%=      5-min Rain = 0
KCR1 130608Z 14003KT 06/M05 A3027 RMK A01 T00641047  RH  045%=      5-min Rain = 0
KCR1 130609Z 14004KT 06/M05 A3027 RMK A01 T00641046  RH  045%=      5-min Rain = 0
KCR1 130610Z 14004KT 06/M05 A3027 RMK A01 T00641046  RH  045%=      5-min Rain = 0
KCR1 130611Z 14004KT 06/M05 A3027 RMK A01 T00641046  RH  045%=      5-min Rain = 0
KCR1 130612Z 15004KT 06/M05 A3027 RMK A01 T00641046  RH  046%=      5-min Rain = 0
KCR1 130613Z 15004KT 06/M05 A3027 RMK A01 T00631045  RH  046%=      5-min Rain = 0
KCR1 130614Z 14004KT 06/M05 A3027 RMK A01 T00631045  RH  046%=      5-min Rain = 0
KCR1 130615Z 14004KT 06/M05 A3027 RMK A01 T00631045  RH  046%=      5-min Rain = 0
KCR1 130616Z 14004KT 06/M05 A3027 RMK A01 T00631045  RH  046%=      5-min Rain = 0
KCR1 130617Z 14004KT 06/M05 A3027 RMK A01 T00621045  RH  046%=      5-min Rain = 0
KCR1 130618Z 14004KT 06/M05 A3027 RMK A01 T00621045  RH  046%=      5-min Rain = 0
KCR1 130619Z 14004KT 06/M05 A3027 RMK A01 T00621045  RH  046%=      5-min Rain = 0
KCR1 130620Z 14004KT 06/M05 A3027 RMK A01 T00621045  RH  046%=      5-min Rain = 0
KCR1 130621Z 14004KT 06/M05 A3027 RMK A01 T00611045  RH  046%=      5-min Rain = 0
KCR1 130622Z 14004KT 06/M05 A3027 RMK A01 T00611045  RH  047%=      5-min Rain = 0
KCR1 130623Z 14004KT 06/M05 A3027 RMK A01 T00611045  RH  047%=      5-min Rain = 0
KCR1 130624Z 14004KT 06/M05 A3027 RMK A01 T00611045  RH  047%=      5-min Rain = 0
KCR1 130625Z 13004KT 06/M05 A3027 RMK A01 T00611045  RH  047%=      5-min Rain = 0
KCR1 130626Z 13004KT 06/M04 A3027 RMK A01 T00611044  RH  047%=      5-min Rain = 0
KCR1 130627Z 13004KT 06/M04 A3027 RMK A01 T00611044  RH  047%=      5-min Rain = 0
KCR1 130628Z 13004KT 06/M04 A3027 RMK A01 T00611044  RH  047%=      5-min Rain = 0
KCR1 130629Z 12004KT 06/M04 A3027 RMK A01 T00611043  RH  047%=      5-min Rain = 0
KCR1 130630Z 12004KT 06/M04 A3027 RMK A01 T00611042  RH  048%=      5-min Rain = 0
KCR1 130631Z 12004KT 06/M04 A3027 RMK A01 T00611040  RH  048%=      5-min Rain = 0
KCR1 130632Z 12004KT 06/M04 A3027 RMK A01 T00611039  RH  049%=      5-min Rain = 0
KCR1 130633Z 12004KT 06/M04 A3027 RMK A01 T00611037  RH  049%=      5-min Rain = 0
KCR1 130634Z 12004KT 06/M04 A3027 RMK A01 T00601036  RH  050%=      5-min Rain = 0
KCR1 130635Z 13004KT 06/M04 A3027 RMK A01 T00601035  RH  050%=      5-min Rain = 0
KCR1 130636Z 13004KT 06/M03 A3027 RMK A01 T00601034  RH  051%=      5-min Rain = 0
KCR1 130637Z 13004KT 06/M03 A3027 RMK A01 T00601033  RH  051%=      5-min Rain = 0
KCR1 130638Z 13004KT 06/M03 A3027 RMK A01 T00601033  RH  051%=      5-min Rain = 0
KCR1 130639Z 13004KT 06/M03 A3027 RMK A01 T00601033  RH  051%=      5-min Rain = 0
KCR1 130640Z 13004KT 06/M03 A3027 RMK A01 T00601033  RH  051%=      5-min Rain = 0
KCR1 130641Z 12004KT 06/M03 A3027 RMK A01 T00601034  RH  051%=      5-min Rain = 0
KCR1 130642Z 12004KT 06/M04 A3027 RMK A01 T00601035  RH  051%=      5-min Rain = 0
KCR1 130643Z 12004KT 06/M04 A3027 RMK A01 T00601036  RH  050%=      5-min Rain = 0
KCR1 130644Z 12004KT 06/M04 A3027 RMK A01 T00601035  RH  050%=      5-min Rain = 0
KCR1 130645Z 12004KT 06/M04 A3027 RMK A01 T00601035  RH  050%=      5-min Rain = 0
KCR1 130646Z 11003KT 06/M04 A3027 RMK A01 T00611036  RH  050%=      5-min Rain = 0
KCR1 130647Z 11003KT 06/M04 A3027 RMK A01 T00611035  RH  050%=      5-min Rain = 0
KCR1 130648Z 11003KT 06/M04 A3027 RMK A01 T00621035  RH  050%=      5-min Rain = 0
KCR1 130649Z 11004KT 06/M03 A3027 RMK A01 T00621034  RH  050%=      5-min Rain = 0
KCR1 130650Z 10004KT 06/M03 A3027 RMK A01 T00631034  RH  050%=      5-min Rain = 0
KCR1 130651Z 10004KT 06/M04 A3027 RMK A01 T00631035  RH  050%=      5-min Rain = 0
KCR1 130652Z 10004KT 06/M04 A3027 RMK A01 T00631037  RH  049%=      5-min Rain = 0
KCR1 130653Z 10005KT 06/M04 A3027 RMK A01 T00631037  RH  049%=      5-min Rain = 0
KCR1 130654Z 10004KT 06/M04 A3027 RMK A01 T00631036  RH  049%=      5-min Rain = 0
KCR1 130655Z 10004KT 06/M04 A3027 RMK A01 T00631035  RH  050%=      5-min Rain = 0
KCR1 130656Z 10004KT 06/M03 A3027 RMK A01 T00621034  RH  050%=      5-min Rain = 0
KCR1 130657Z 10004KT 06/M03 A3027 RMK A01 T00621034  RH  050%=      5-min Rain = 0
KCR1 130658Z 10004KT 06/M03 A3027 RMK A01 T00621033  RH  051%=      5-min Rain = 0
KCR1 130659Z 10005KT 06/M03 A3027 RMK A01 T00611034  RH  051%=      5-min Rain = 0
KCR1 130700Z 09005KT 06/M03 A3027 RMK A01 T00611034  RH  050%=      5-min Rain = 0
KCR1 130701Z 06006KT 06/M04 A3027 RMK A01 T00611035  RH  050%=      5-min Rain = 0
KCR1 130702Z 05007KT 06/M04 A3027 RMK A01 T00601038  RH  050%=      5-min Rain = 0
KCR1 130703Z 06005KT 06/M04 A3027 RMK A01 T00591044  RH  048%=      5-min Rain = 0
KCR1 130704Z 07005KT 06/M05 A3027 RMK A01 T00571046  RH  047%=      5-min Rain = 0
KCR1 130705Z 07005KT 06/M04 A3027 RMK A01 T00571044  RH  048%=      5-min Rain = 0
KCR1 130706Z 08004KT 06/M05 A3027 RMK A01 T00561045  RH  048%=      5-min Rain = 0
KCR1 130707Z 07005KT 06/M04 A3027 RMK A01 T00561044  RH  049%=      5-min Rain = 0
KCR1 130708Z 06005KT 06/M04 A3027 RMK A01 T00561044  RH  049%=      5-min Rain = 0
KCR1 130709Z 07004KT 06/M04 A3027 RMK A01 T00561043  RH  049%=      5-min Rain = 0
KCR1 130710Z 06004KT 06/M04 A3027 RMK A01 T00551044  RH  049%=      5-min Rain = 0
KCR1 130711Z 05005KT 06/M04 A3027 RMK A01 T00551044  RH  049%=      5-min Rain = 0
KCR1 130712Z 06005KT 06/M05 A3027 RMK A01 T00551045  RH  048%=      5-min Rain = 0
KCR1 130713Z 06005KT 06/M05 A3027 RMK A01 T00551046  RH  048%=      5-min Rain = 0
KCR1 130714Z 06005KT 06/M05 A3027 RMK A01 T00551046  RH  048%=      5-min Rain = 0
KCR1 130715Z 07005KT 06/M05 A3027 RMK A01 T00551046  RH  048%=      5-min Rain = 0
KCR1 130716Z 07005KT 06/M05 A3027 RMK A01 T00551045  RH  048%=      5-min Rain = 0
KCR1 130717Z 07005KT 06/M05 A3027 RMK A01 T00551045  RH  049%=      5-min Rain = 0
KCR1 130718Z 07006KT 06/M04 A3027 RMK A01 T00551044  RH  049%=      5-min Rain = 0
KCR1 130719Z 08005KT 06/M04 A3027 RMK A01 T00551043  RH  049%=      5-min Rain = 0
KCR1 130720Z 08006KT 06/M04 A3027 RMK A01 T00551042  RH  050%=      5-min Rain = 0
KCR1 130721Z 08006KT 06/M04 A3027 RMK A01 T00551041  RH  050%=      5-min Rain = 0
KCR1 130722Z 08006KT 06/M04 A3027 RMK A01 T00551039  RH  051%=      5-min Rain = 0
KCR1 130723Z 07005KT 06/M04 A3027 RMK A01 T00551039  RH  051%=      5-min Rain = 0
KCR1 130724Z 07005KT 06/M04 A3027 RMK A01 T00551039  RH  051%=      5-min Rain = 0
KCR1 130725Z 07006KT 06/M04 A3027 RMK A01 T00551040  RH  051%=      5-min Rain = 0
KCR1 130726Z 07006KT 06/M04 A3027 RMK A01 T00551040  RH  050%=      5-min Rain = 0
KCR1 130727Z 07006KT 06/M04 A3027 RMK A01 T00551040  RH  051%=      5-min Rain = 0
KCR1 130728Z 07006KT 06/M04 A3027 RMK A01 T00551040  RH  051%=      5-min Rain = 0
KCR1 130729Z 08005KT 05/M04 A3027 RMK A01 T00541040  RH  051%=      5-min Rain = 0
KCR1 130730Z 07005KT 05/M04 A3027 RMK A01 T00541040  RH  051%=      5-min Rain = 0
KCR1 130731Z 07005KT 05/M04 A3027 RMK A01 T00531040  RH  051%=      5-min Rain = 0
KCR1 130732Z 08005KT 05/M04 A3027 RMK A01 T00531039  RH  051%=      5-min Rain = 0
KCR1 130733Z 08005KT 05/M04 A3027 RMK A01 T00531039  RH  052%=      5-min Rain = 0
KCR1 130734Z 08005KT 05/M04 A3027 RMK A01 T00521039  RH  052%=      5-min Rain = 0
KCR1 130735Z 08005KT 05/M04 A3027 RMK A01 T00521039  RH  052%=      5-min Rain = 0
KCR1 130736Z 08005KT 05/M04 A3027 RMK A01 T00521039  RH  052%=      5-min Rain = 0
KCR1 130737Z 08005KT 05/M04 A3027 RMK A01 T00521039  RH  052%=      5-min Rain = 0
KCR1 130738Z 08005KT 05/M04 A3027 RMK A01 T00521039  RH  052%=      5-min Rain = 0
KCR1 130739Z 08005KT 05/M04 A3027 RMK A01 T00521039  RH  052%=      5-min Rain = 0
KCR1 130740Z 09004KT 05/M04 A3027 RMK A01 T00521039  RH  052%=      5-min Rain = 0
KCR1 130741Z 09005KT 05/M04 A3027 RMK A01 T00521039  RH  052%=      5-min Rain = 0
KCR1 130742Z 08004KT 05/M04 A3027 RMK A01 T00521038  RH  052%=      5-min Rain = 0
KCR1 130743Z 09004KT 05/M04 A3027 RMK A01 T00531038  RH  052%=      5-min Rain = 0
KCR1 130744Z 09004KT 05/M04 A3027 RMK A01 T00531038  RH  052%=      5-min Rain = 0
KCR1 130745Z 09004KT 05/M04 A3027 RMK A01 T00531037  RH  052%=      5-min Rain = 0
KCR1 130746Z 09004KT 05/M04 A3027 RMK A01 T00531037  RH  052%=      5-min Rain = 0
KCR1 130747Z 09004KT 05/M04 A3027 RMK A01 T00531037  RH  052%=      5-min Rain = 0
KCR1 130748Z 09004KT 05/M04 A3027 RMK A01 T00531037  RH  052%=      5-min Rain = 0
KCR1 130749Z 10004KT 05/M04 A3027 RMK A01 T00521037  RH  052%=      5-min Rain = 0
KCR1 130750Z 10004KT 05/M04 A3027 RMK A01 T00521037  RH  052%=      5-min Rain = 0
KCR1 130751Z 10004KT 05/M04 A3027 RMK A01 T00521038  RH  052%=      5-min Rain = 0
KCR1 130752Z 10004KT 05/M04 A3027 RMK A01 T00521038  RH  052%=      5-min Rain = 0
KCR1 130753Z 10004KT 05/M04 A3027 RMK A01 T00531037  RH  052%=      5-min Rain = 0
KCR1 130754Z 11003KT 05/M04 A3027 RMK A01 T00531037  RH  052%=      5-min Rain = 0
KCR1 130755Z 11003KT 05/M04 A3027 RMK A01 T00531037  RH  052%=      5-min Rain = 0
KCR1 130756Z 11003KT 05/M04 A3027 RMK A01 T00531036  RH  052%=      5-min Rain = 0
KCR1 130757Z 10003KT 05/M04 A3027 RMK A01 T00531036  RH  052%=      5-min Rain = 0
KCR1 130758Z 10003KT 05/M04 A3027 RMK A01 T00531036  RH  052%=      5-min Rain = 0
KCR1 130759Z 09003KT 05/M04 A3027 RMK A01 T00541036  RH  052%=      5-min Rain = 0
KCR1 130800Z 10003KT 05/M04 A3027 RMK A01 T00541036  RH  052%=      5-min Rain = 0
KCR1 130801Z 09004KT 05/M04 A3027 RMK A01 T00541036  RH  052%=      5-min Rain = 0
KCR1 130802Z 09004KT 05/M04 A3027 RMK A01 T00541036  RH  052%=      5-min Rain = 0
KCR1 130803Z 09004KT 05/M04 A3027 RMK A01 T00541036  RH  052%=      5-min Rain = 0
KCR1 130804Z 09004KT 05/M04 A3027 RMK A01 T00531037  RH  052%=      5-min Rain = 0
KCR1 130805Z 09004KT 05/M04 A3027 RMK A01 T00531037  RH  052%=      5-min Rain = 0
KCR1 130806Z 09004KT 05/M04 A3027 RMK A01 T00531036  RH  053%=      5-min Rain = 0
KCR1 130807Z 09005KT 05/M04 A3027 RMK A01 T00521036  RH  053%=      5-min Rain = 0
KCR1 130808Z 08005KT 05/M04 A3027 RMK A01 T00521036  RH  053%=      5-min Rain = 0
KCR1 130809Z 08005KT 05/M04 A3027 RMK A01 T00521037  RH  053%=      5-min Rain = 0
KCR1 130810Z 08005KT 05/M04 A3027 RMK A01 T00511038  RH  053%=      5-min Rain = 0
KCR1 130811Z 08004KT 05/M04 A3027 RMK A01 T00511038  RH  053%=      5-min Rain = 0
KCR1 130812Z 07004KT 05/M04 A3027 RMK A01 T00511038  RH  053%=      5-min Rain = 0
KCR1 130813Z 07004KT 05/M04 A3027 RMK A01 T00501038  RH  053%=      5-min Rain = 0
KCR1 130814Z 07004KT 05/M04 A3027 RMK A01 T00511039  RH  052%=      5-min Rain = 0
KCR1 130815Z 07004KT 05/M04 A3027 RMK A01 T00501041  RH  052%=      5-min Rain = 0
KCR1 130816Z 07004KT 05/M04 A3027 RMK A01 T00501042  RH  051%=      5-min Rain = 0
KCR1 130817Z 07004KT 05/M04 A3027 RMK A01 T00501042  RH  051%=      5-min Rain = 0
KCR1 130818Z 07004KT 05/M04 A3027 RMK A01 T00501042  RH  051%=      5-min Rain = 0
KCR1 130819Z 07004KT 05/M04 A3027 RMK A01 T00501042  RH  051%=      5-min Rain = 0
KCR1 130820Z 08004KT 05/M04 A3027 RMK A01 T00501042  RH  051%=      5-min Rain = 0
KCR1 130821Z 08004KT 05/M04 A3027 RMK A01 T00501042  RH  051%=      5-min Rain = 0
KCR1 130822Z 08003KT 05/M04 A3027 RMK A01 T00511042  RH  051%=      5-min Rain = 0
KCR1 130823Z 08003KT 05/M04 A3027 RMK A01 T00501043  RH  051%=      5-min Rain = 0
KCR1 130824Z 08003KT 05/M04 A3027 RMK A01 T00501042  RH  051%=      5-min Rain = 0
KCR1 130825Z 08003KT 05/M04 A3027 RMK A01 T00501041  RH  051%=      5-min Rain = 0
KCR1 130826Z 09003KT 05/M04 A3027 RMK A01 T00511041  RH  051%=      5-min Rain = 0
KCR1 130827Z 09003KT 05/M04 A3027 RMK A01 T00511041  RH  051%=      5-min Rain = 0
KCR1 130828Z 10003KT 05/M04 A3027 RMK A01 T00511041  RH  051%=      5-min Rain = 0
KCR1 130829Z 10003KT 05/M04 A3027 RMK A01 T00521040  RH  052%=      5-min Rain = 0
KCR1 130830Z 10003KT 05/M04 A3027 RMK A01 T00521040  RH  051%=      5-min Rain = 0
KCR1 130831Z 11003KT 05/M04 A3027 RMK A01 T00531040  RH  051%=      5-min Rain = 0
KCR1 130832Z 11002KT 05/M04 A3027 RMK A01 T00531040  RH  051%=      5-min Rain = 0
KCR1 130833Z 11002KT 05/M04 A3027 RMK A01 T00541040  RH  051%=      5-min Rain = 0
KCR1 130834Z 10003KT 05/M04 A3027 RMK A01 T00531040  RH  051%=      5-min Rain = 0
KCR1 130835Z 10003KT 05/M04 A3027 RMK A01 T00531040  RH  051%=      5-min Rain = 0
KCR1 130836Z 10003KT 05/M04 A3027 RMK A01 T00531040  RH  051%=      5-min Rain = 0
KCR1 130837Z 09003KT 05/M04 A3027 RMK A01 T00531040  RH  051%=      5-min Rain = 0
KCR1 130838Z 10003KT 05/M04 A3027 RMK A01 T00531040  RH  051%=      5-min Rain = 0
KCR1 130839Z 10003KT 05/M04 A3027 RMK A01 T00531040  RH  051%=      5-min Rain = 0
KCR1 130840Z 09003KT 05/M04 A3027 RMK A01 T00531040  RH  051%=      5-min Rain = 0
KCR1 130841Z 09003KT 05/M04 A3027 RMK A01 T00531040  RH  051%=      5-min Rain = 0
KCR1 130842Z 09004KT 05/M04 A3027 RMK A01 T00531041  RH  051%=      5-min Rain = 0
KCR1 130843Z 09003KT 05/M04 A3027 RMK A01 T00531042  RH  050%=      5-min Rain = 0
KCR1 130844Z 09004KT 05/M04 A3027 RMK A01 T00531041  RH  050%=      5-min Rain = 0
KCR1 130845Z 09004KT 05/M04 A3027 RMK A01 T00531042  RH  051%=      5-min Rain = 0
KCR1 130846Z 09004KT 05/M04 A3027 RMK A01 T00521042  RH  051%=      5-min Rain = 0
KCR1 130847Z 09004KT 05/M04 A3027 RMK A01 T00521042  RH  051%=      5-min Rain = 0
KCR1 130848Z 09004KT 05/M04 A3027 RMK A01 T00521042  RH  051%=      5-min Rain = 0
KCR1 130849Z 09004KT 05/M04 A3027 RMK A01 T00511042  RH  051%=      5-min Rain = 0
KCR1 130850Z 10004KT 05/M04 A3027 RMK A01 T00511042  RH  051%=      5-min Rain = 0
KCR1 130851Z 10004KT 05/M04 A3027 RMK A01 T00511042  RH  051%=      5-min Rain = 0
KCR1 130852Z 09004KT 05/M04 A3027 RMK A01 T00511042  RH  051%=      5-min Rain = 0
KCR1 130853Z 10004KT 05/M04 A3027 RMK A01 T00511042  RH  051%=      5-min Rain = 0
KCR1 130854Z 09004KT 05/M04 A3027 RMK A01 T00501042  RH  051%=      5-min Rain = 0
KCR1 130855Z 10004KT 05/M04 A3027 RMK A01 T00501042  RH  051%=      5-min Rain = 0
KCR1 130856Z 09004KT 05/M04 A3027 RMK A01 T00501042  RH  052%=      5-min Rain = 0
KCR1 130857Z 09004KT 05/M04 A3027 RMK A01 T00491042  RH  052%=      5-min Rain = 0
KCR1 130858Z 10004KT 05/M04 A3027 RMK A01 T00491042  RH  052%=      5-min Rain = 0
KCR1 130859Z 10004KT 05/M04 A3027 RMK A01 T00491042  RH  052%=      5-min Rain = 0
KCR1 130900Z 10004KT 05/M04 A3027 RMK A01 T00491042  RH  052%=      5-min Rain = 0
KCR1 130901Z 10004KT 05/M04 A3027 RMK A01 T00491042  RH  052%=      5-min Rain = 0
KCR1 130902Z 10004KT 05/M04 A3027 RMK A01 T00491042  RH  052%=      5-min Rain = 0
KCR1 130903Z 10004KT 05/M04 A3027 RMK A01 T00491042  RH  052%=      5-min Rain = 0
KCR1 130904Z 09004KT 05/M04 A3027 RMK A01 T00491042  RH  052%=      5-min Rain = 0
KCR1 130905Z 08003KT 05/M04 A3027 RMK A01 T00491042  RH  052%=      5-min Rain = 0
KCR1 130906Z 06002KT 05/M04 A3027 RMK A01 T00481044  RH  051%=      5-min Rain = 0
KCR1 130907Z 07003KT 05/M05 A3027 RMK A01 T00471045  RH  051%=      5-min Rain = 0
KCR1 130908Z 08004KT 05/M04 A3027 RMK A01 T00471044  RH  052%=      5-min Rain = 0
KCR1 130909Z 07004KT 05/M05 A3027 RMK A01 T00471045  RH  051%=      5-min Rain = 0
KCR1 130910Z 08003KT 05/M04 A3027 RMK A01 T00471044  RH  052%=      5-min Rain = 0
KCR1 130911Z 08003KT 05/M04 A3027 RMK A01 T00461044  RH  052%=      5-min Rain = 0
KCR1 130912Z 08003KT 05/M04 A3027 RMK A01 T00461044  RH  052%=      5-min Rain = 0
KCR1 130913Z 08003KT 05/M04 A3027 RMK A01 T00461044  RH  052%=      5-min Rain = 0
KCR1 130914Z 07003KT 05/M04 A3027 RMK A01 T00461044  RH  052%=      5-min Rain = 0
KCR1 130915Z 07002KT 05/M04 A3027 RMK A01 T00451044  RH  052%=      5-min Rain = 0
KCR1 130916Z 07002KT 04/M05 A3027 RMK A01 T00441045  RH  053%=      5-min Rain = 0
KCR1 130917Z 08002KT 04/M04 A3027 RMK A01 T00431044  RH  053%=      5-min Rain = 0
KCR1 130918Z 09002KT 04/M04 A3027 RMK A01 T00431043  RH  054%=      5-min Rain = 0
KCR1 130919Z 09002KT 04/M04 A3027 RMK A01 T00431043  RH  054%=      5-min Rain = 0
KCR1 130920Z 09002KT 04/M04 A3027 RMK A01 T00431042  RH  054%=      5-min Rain = 0
KCR1 130921Z 09003KT 04/M04 A3027 RMK A01 T00441042  RH  053%=      5-min Rain = 0
KCR1 130922Z 08002KT 05/M04 A3027 RMK A01 T00451042  RH  053%=      5-min Rain = 0
KCR1 130923Z 08002KT 05/M04 A3027 RMK A01 T00461042  RH  053%=      5-min Rain = 0
KCR1 130924Z 07002KT 05/M04 A3027 RMK A01 T00471042  RH  052%=      5-min Rain = 0
KCR1 130925Z 05002KT 05/M04 A3027 RMK A01 T00471042  RH  052%=      5-min Rain = 0
KCR1 130926Z 05003KT 05/M04 A3027 RMK A01 T00461042  RH  053%=      5-min Rain = 0
KCR1 130927Z 05003KT 05/M04 A3027 RMK A01 T00451043  RH  053%=      5-min Rain = 0
KCR1 130928Z 04003KT 04/M04 A3027 RMK A01 T00421043  RH  054%=      5-min Rain = 0
KCR1 130929Z 04003KT 04/M04 A3027 RMK A01 T00411043  RH  054%=      5-min Rain = 0
KCR1 130930Z 04003KT 04/M04 A3027 RMK A01 T00391043  RH  055%=      5-min Rain = 0
KCR1 130931Z 04003KT 04/M04 A3027 RMK A01 T00371043  RH  056%=      5-min Rain = 0
KCR1 130932Z 03003KT 04/M04 A3027 RMK A01 T00351043  RH  057%=      5-min Rain = 0
KCR1 130933Z 03003KT 03/M04 A3027 RMK A01 T00341043  RH  057%=      5-min Rain = 0
KCR1 130934Z 03003KT 03/M04 A3027 RMK A01 T00331043  RH  057%=      5-min Rain = 0
KCR1 130935Z 03003KT 03/M04 A3028 RMK A01 T00321043  RH  058%=      5-min Rain = 0
KCR1 130936Z 03003KT 03/M04 A3028 RMK A01 T00311043  RH  058%=      5-min Rain = 0
KCR1 130937Z 03003KT 03/M04 A3028 RMK A01 T00311043  RH  058%=      5-min Rain = 0
KCR1 130938Z 03003KT 03/M04 A3028 RMK A01 T00301043  RH  059%=      5-min Rain = 0
KCR1 130939Z 03003KT 03/M04 A3028 RMK A01 T00291044  RH  059%=      5-min Rain = 0
KCR1 130940Z 03004KT 03/M04 A3028 RMK A01 T00291043  RH  059%=      5-min Rain = 0
KCR1 130941Z 03004KT 03/M04 A3028 RMK A01 T00281043  RH  059%=      5-min Rain = 0
KCR1 130942Z 03004KT 03/M04 A3028 RMK A01 T00281043  RH  060%=      5-min Rain = 0
KCR1 130943Z 02004KT 03/M04 A3028 RMK A01 T00281042  RH  060%=      5-min Rain = 0
KCR1 130944Z 02004KT 03/M04 A3028 RMK A01 T00281042  RH  060%=      5-min Rain = 0
KCR1 130945Z 03003KT 03/M04 A3027 RMK A01 T00281042  RH  060%=      5-min Rain = 0
KCR1 130946Z 03003KT 03/M04 A3027 RMK A01 T00281041  RH  060%=      5-min Rain = 0
KCR1 130947Z 02003KT 03/M04 A3027 RMK A01 T00271042  RH  060%=      5-min Rain = 0
KCR1 130948Z 03003KT 03/M04 A3027 RMK A01 T00271042  RH  061%=      5-min Rain = 0
KCR1 130949Z 03003KT 03/M04 A3027 RMK A01 T00271042  RH  061%=      5-min Rain = 0
KCR1 130950Z 03003KT 03/M04 A3027 RMK A01 T00261041  RH  061%=      5-min Rain = 0
KCR1 130951Z 03003KT 03/M04 A3027 RMK A01 T00261041  RH  061%=      5-min Rain = 0
KCR1 130952Z 03003KT 03/M04 A3027 RMK A01 T00271041  RH  061%=      5-min Rain = 0
KCR1 130953Z 03004KT 03/M04 A3027 RMK A01 T00271041  RH  061%=      5-min Rain = 0
KCR1 130954Z 04004KT 03/M04 A3027 RMK A01 T00271041  RH  061%=      5-min Rain = 0
KCR1 130955Z 04004KT 03/M04 A3027 RMK A01 T00271041  RH  061%=      5-min Rain = 0
KCR1 130956Z 04004KT 03/M04 A3027 RMK A01 T00271041  RH  061%=      5-min Rain = 0
KCR1 130957Z 04004KT 03/M04 A3027 RMK A01 T00271041  RH  061%=      5-min Rain = 0
KCR1 130958Z 04004KT 03/M04 A3027 RMK A01 T00261041  RH  061%=      5-min Rain = 0
KCR1 130959Z 04005KT 03/M04 A3027 RMK A01 T00261040  RH  062%=      5-min Rain = 0
KCR1 131000Z 04005KT 03/M04 A3027 RMK A01 T00271041  RH  061%=      5-min Rain = 0
KCR1 131001Z 04005KT 03/M04 A3028 RMK A01 T00271042  RH  061%=      5-min Rain = 0
KCR1 131002Z 04006KT 03/M04 A3028 RMK A01 T00261042  RH  061%=      5-min Rain = 0
KCR1 131003Z 04006KT 03/M04 A3028 RMK A01 T00251041  RH  062%=      5-min Rain = 0
KCR1 131004Z 04006KT 03/M04 A3028 RMK A01 T00251043  RH  061%=      5-min Rain = 0
KCR1 131005Z 04006KT 02/M04 A3028 RMK A01 T00241043  RH  061%=      5-min Rain = 0
KCR1 131006Z 04006KT 02/M04 A3028 RMK A01 T00241043  RH  061%=      5-min Rain = 0
KCR1 131007Z 04006KT 02/M04 A3028 RMK A01 T00241041  RH  062%=      5-min Rain = 0
KCR1 131008Z 04006KT 02/M04 A3028 RMK A01 T00241042  RH  061%=      5-min Rain = 0
KCR1 131009Z 04006KT 02/M04 A3028 RMK A01 T00241043  RH  061%=      5-min Rain = 0
KCR1 131010Z 04006KT 02/M04 A3028 RMK A01 T00241043  RH  062%=      5-min Rain = 0
KCR1 131011Z 04006KT 02/M04 A3028 RMK A01 T00231043  RH  062%=      5-min Rain = 0
KCR1 131012Z 04006KT 02/M04 A3028 RMK A01 T00231042  RH  062%=      5-min Rain = 0
KCR1 131013Z 04006KT 02/M04 A3028 RMK A01 T00231042  RH  062%=      5-min Rain = 0
KCR1 131014Z 04006KT 02/M04 A3028 RMK A01 T00221042  RH  062%=      5-min Rain = 0
KCR1 131015Z 04006KT 02/M04 A3028 RMK A01 T00231042  RH  062%=      5-min Rain = 0
KCR1 131016Z 03006KT 02/M04 A3028 RMK A01 T00221043  RH  062%=      5-min Rain = 0
KCR1 131017Z 03006KT 02/M04 A3028 RMK A01 T00231042  RH  062%=      5-min Rain = 0
KCR1 131018Z 03005KT 02/M04 A3028 RMK A01 T00221042  RH  062%=      5-min Rain = 0
KCR1 131019Z 03005KT 02/M04 A3028 RMK A01 T00231042  RH  062%=      5-min Rain = 0
KCR1 131020Z 03005KT 02/M04 A3028 RMK A01 T00231042  RH  062%=      5-min Rain = 0
KCR1 131021Z 02005KT 02/M04 A3028 RMK A01 T00221043  RH  062%=      5-min Rain = 0
KCR1 131022Z 02006KT 02/M04 A3028 RMK A01 T00221042  RH  062%=      5-min Rain = 0
KCR1 131023Z 02006KT 02/M04 A3028 RMK A01 T00231042  RH  062%=      5-min Rain = 0
KCR1 131024Z 02006KT 02/M04 A3028 RMK A01 T00221042  RH  062%=      5-min Rain = 0
KCR1 131025Z 01006KT 02/M04 A3028 RMK A01 T00221042  RH  063%=      5-min Rain = 0
KCR1 131026Z 01006KT 02/M04 A3029 RMK A01 T00231041  RH  063%=      5-min Rain = 0
KCR1 131027Z 01006KT 02/M04 A3029 RMK A01 T00241040  RH  063%=      5-min Rain = 0
KCR1 131028Z 01006KT 02/M04 A3029 RMK A01 T00241041  RH  062%=      5-min Rain = 0
KCR1 131029Z 01006KT 02/M04 A3029 RMK A01 T00241041  RH  062%=      5-min Rain = 0
KCR1 131030Z 00006KT 02/M04 A3029 RMK A01 T00241041  RH  062%=      5-min Rain = 0
KCR1 131031Z 00006KT 02/M04 A3029 RMK A01 T00241042  RH  062%=      5-min Rain = 0
KCR1 131032Z 00006KT 02/M04 A3029 RMK A01 T00241041  RH  062%=      5-min Rain = 0
KCR1 131033Z 00006KT 02/M04 A3029 RMK A01 T00231042  RH  062%=      5-min Rain = 0
KCR1 131034Z 01006KT 02/M04 A3029 RMK A01 T00231041  RH  063%=      5-min Rain = 0
KCR1 131035Z 01006KT 02/M04 A3029 RMK A01 T00231040  RH  063%=      5-min Rain = 0
KCR1 131036Z 01006KT 02/M04 A3029 RMK A01 T00231040  RH  063%=      5-min Rain = 0
KCR1 131037Z 01006KT 02/M04 A3029 RMK A01 T00231041  RH  063%=      5-min Rain = 0
KCR1 131038Z 01006KT 02/M04 A3029 RMK A01 T00231040  RH  063%=      5-min Rain = 0
KCR1 131039Z 01006KT 02/M04 A3029 RMK A01 T00231041  RH  062%=      5-min Rain = 0
KCR1 131040Z 01006KT 02/M04 A3029 RMK A01 T00241041  RH  062%=      5-min Rain = 0
KCR1 131041Z 01005KT 02/M04 A3029 RMK A01 T00231041  RH  062%=      5-min Rain = 0
KCR1 131042Z 01005KT 02/M04 A3029 RMK A01 T00231041  RH  062%=      5-min Rain = 0
KCR1 131043Z 00005KT 02/M04 A3029 RMK A01 T00231041  RH  062%=      5-min Rain = 0
KCR1 131044Z 36004KT 02/M04 A3029 RMK A01 T00221042  RH  063%=      5-min Rain = 0
KCR1 131045Z 35004KT 02/M04 A3029 RMK A01 T00211042  RH  063%=      5-min Rain = 0
KCR1 131046Z 34004KT 02/M04 A3029 RMK A01 T00211042  RH  063%=      5-min Rain = 0
KCR1 131047Z 35004KT 02/M04 A3029 RMK A01 T00201042  RH  063%=      5-min Rain = 0
KCR1 131048Z 34004KT 02/M04 A3029 RMK A01 T00201042  RH  063%=      5-min Rain = 0
KCR1 131049Z 34004KT 02/M04 A3029 RMK A01 T00201042  RH  063%=      5-min Rain = 0
KCR1 131050Z 34004KT 02/M04 A3029 RMK A01 T00201042  RH  063%=      5-min Rain = 0
KCR1 131051Z 34004KT 02/M04 A3029 RMK A01 T00201042  RH  064%=      5-min Rain = 0
KCR1 131052Z 34004KT 02/M04 A3029 RMK A01 T00211042  RH  063%=      5-min Rain = 0
KCR1 131053Z 34004KT 02/M04 A3029 RMK A01 T00221041  RH  063%=      5-min Rain = 0
KCR1 131054Z 33004KT 02/M04 A3029 RMK A01 T00231041  RH  062%=      5-min Rain = 0
KCR1 131055Z 34004KT 02/M04 A3029 RMK A01 T00241041  RH  062%=      5-min Rain = 0
KCR1 131056Z 34004KT 03/M04 A3029 RMK A01 T00251041  RH  062%=      5-min Rain = 0
KCR1 131057Z 34004KT 03/M04 A303 RMK A01 T00251041  RH  062%=      5-min Rain = 0
KCR1 131058Z 34005KT 03/M04 A303 RMK A01 T00251041  RH  062%=      5-min Rain = 0
KCR1 131059Z 34005KT 03/M04 A303 RMK A01 T00251041  RH  062%=      5-min Rain = 0
KCR1 131100Z 34005KT 03/M04 A303 RMK A01 T00251041  RH  062%=      5-min Rain = 0
KCR1 131101Z 34005KT 03/M04 A303 RMK A01 T00251042  RH  062%=      5-min Rain = 0
KCR1 131102Z 34005KT 02/M04 A303 RMK A01 T00241042  RH  062%=      5-min Rain = 0
KCR1 131103Z 34005KT 02/M04 A303 RMK A01 T00241042  RH  062%=      5-min Rain = 0
KCR1 131104Z 34005KT 02/M04 A303 RMK A01 T00241042  RH  062%=      5-min Rain = 0
KCR1 131105Z 34005KT 02/M04 A303 RMK A01 T00241042  RH  062%=      5-min Rain = 0
KCR1 131106Z 34005KT 02/M04 A303 RMK A01 T00241042  RH  062%=      5-min Rain = 0
KCR1 131107Z 34005KT 02/M04 A303 RMK A01 T00241042  RH  062%=      5-min Rain = 0
KCR1 131108Z 33004KT 03/M04 A303 RMK A01 T00251042  RH  061%=      5-min Rain = 0
KCR1 131109Z 33004KT 03/M04 A303 RMK A01 T00251042  RH  061%=      5-min Rain = 0
KCR1 131110Z 32003KT 03/M04 A303 RMK A01 T00251042  RH  061%=      5-min Rain = 0
KCR1 131111Z 32003KT 03/M04 A303 RMK A01 T00261042  RH  061%=      5-min Rain = 0
KCR1 131112Z 32003KT 03/M04 A303 RMK A01 T00261042  RH  061%=      5-min Rain = 0
KCR1 131113Z 32003KT 03/M04 A303 RMK A01 T00261042  RH  061%=      5-min Rain = 0
KCR1 131114Z 31003KT 03/M04 A303 RMK A01 T00261042  RH  061%=      5-min Rain = 0
KCR1 131115Z 31003KT 03/M04 A303 RMK A01 T00261043  RH  061%=      5-min Rain = 0
KCR1 131116Z 31003KT 03/M04 A303 RMK A01 T00251043  RH  061%=      5-min Rain = 0
KCR1 131117Z 31003KT 02/M04 A303 RMK A01 T00241043  RH  061%=      5-min Rain = 0
KCR1 131118Z 31003KT 02/M04 A303 RMK A01 T00241042  RH  062%=      5-min Rain = 0
KCR1 131119Z 32003KT 03/M04 A303 RMK A01 T00251042  RH  061%=      5-min Rain = 0
KCR1 131120Z 31003KT 03/M04 A303 RMK A01 T00251042  RH  061%=      5-min Rain = 0
KCR1 131121Z 31003KT 03/M04 A303 RMK A01 T00251042  RH  061%=      5-min Rain = 0
KCR1 131122Z 31003KT 03/M04 A303 RMK A01 T00251042  RH  061%=      5-min Rain = 0
KCR1 131123Z 32003KT 02/M04 A303 RMK A01 T00241042  RH  061%=      5-min Rain = 0
KCR1 131124Z 32003KT 02/M04 A303 RMK A01 T00241043  RH  062%=      5-min Rain = 0
KCR1 131125Z 32003KT 02/M04 A303 RMK A01 T00241043  RH  062%=      5-min Rain = 0
KCR1 131126Z 33003KT 02/M04 A303 RMK A01 T00231042  RH  062%=      5-min Rain = 0
KCR1 131127Z 34003KT 02/M04 A3031 RMK A01 T00231042  RH  062%=      5-min Rain = 0
KCR1 131128Z 34004KT 02/M04 A303 RMK A01 T00221043  RH  062%=      5-min Rain = 0
KCR1 131129Z 34004KT 02/M04 A303 RMK A01 T00211044  RH  062%=      5-min Rain = 0
KCR1 131130Z 35004KT 02/M04 A303 RMK A01 T00201044  RH  062%=      5-min Rain = 0
KCR1 131131Z 35003KT 02/M04 A303 RMK A01 T00191044  RH  063%=      5-min Rain = 0
KCR1 131132Z 36003KT 02/M04 A303 RMK A01 T00201044  RH  063%=      5-min Rain = 0
KCR1 131133Z 00004KT 02/M04 A303 RMK A01 T00201044  RH  063%=      5-min Rain = 0
KCR1 131134Z 00004KT 02/M04 A303 RMK A01 T00211043  RH  062%=      5-min Rain = 0
KCR1 131135Z 00004KT 02/M05 A303 RMK A01 T00201045  RH  062%=      5-min Rain = 0
KCR1 131136Z 00004KT 02/M05 A303 RMK A01 T00191045  RH  063%=      5-min Rain = 0
KCR1 131137Z 36005KT 02/M05 A303 RMK A01 T00171046  RH  063%=      5-min Rain = 0
KCR1 131138Z 00005KT 02/M05 A303 RMK A01 T00161046  RH  063%=      5-min Rain = 0
KCR1 131139Z 00005KT 02/M05 A3031 RMK A01 T00171046  RH  063%=      5-min Rain = 0
KCR1 131140Z 00005KT 02/M05 A3031 RMK A01 T00171046  RH  063%=      5-min Rain = 0
KCR1 131141Z 00005KT 02/M05 A3031 RMK A01 T00161046  RH  063%=      5-min Rain = 0
KCR1 131142Z 00006KT 02/M05 A3031 RMK A01 T00161046  RH  063%=      5-min Rain = 0
KCR1 131143Z 01006KT 02/M05 A3031 RMK A01 T00171047  RH  063%=      5-min Rain = 0
KCR1 131144Z 01006KT 02/M05 A3031 RMK A01 T00171047  RH  063%=      5-min Rain = 0
KCR1 131145Z 01005KT 02/M05 A3031 RMK A01 T00181046  RH  062%=      5-min Rain = 0
KCR1 131146Z 01006KT 02/M05 A3031 RMK A01 T00181047  RH  062%=      5-min Rain = 0
KCR1 131147Z 01006KT 02/M05 A3031 RMK A01 T00181048  RH  062%=      5-min Rain = 0
KCR1 131148Z 01006KT 02/M05 A3031 RMK A01 T00181047  RH  062%=      5-min Rain = 0
KCR1 131149Z 01006KT 02/M05 A3031 RMK A01 T00181047  RH  062%=      5-min Rain = 0
KCR1 131150Z 01006KT 02/M05 A3031 RMK A01 T00181047  RH  062%=      5-min Rain = 0
KCR1 131151Z 01006KT 02/M05 A3031 RMK A01 T00181047  RH  062%=      5-min Rain = 0
KCR1 131152Z 01006KT 02/M05 A3031 RMK A01 T00181048  RH  062%=      5-min Rain = 0
KCR1 131153Z 02006KT 02/M05 A3031 RMK A01 T00161049  RH  062%=      5-min Rain = 0
KCR1 131154Z 01006KT 02/M05 A3031 RMK A01 T00151049  RH  062%=      5-min Rain = 0
KCR1 131155Z 02007KT 02/M05 A3031 RMK A01 T00151049  RH  063%=      5-min Rain = 0
KCR1 131156Z 02007KT 01/M05 A3031 RMK A01 T00141049  RH  063%=      5-min Rain = 0
KCR1 131157Z 02006KT 01/M05 A3031 RMK A01 T00131049  RH  063%=      5-min Rain = 0
KCR1 131158Z 02006KT 01/M05 A3031 RMK A01 T00121050  RH  063%=      5-min Rain = 0
KCR1 131159Z 02007KT 01/M05 A3031 RMK A01 T00121050  RH  064%=      5-min Rain = 0
KCR1 131200Z 02006KT 01/M05 A3031 RMK A01 T00111050  RH  064%=      5-min Rain = 0
KCR1 131201Z 02006KT 01/M05 A3031 RMK A01 T00101050  RH  064%=      5-min Rain = 0
KCR1 131202Z 02006KT 01/M05 A3031 RMK A01 T00091050  RH  064%=      5-min Rain = 0
KCR1 131203Z 01006KT 01/M05 A3031 RMK A01 T00101050  RH  064%=      5-min Rain = 0
KCR1 131204Z 02006KT 01/M05 A3031 RMK A01 T00101050  RH  064%=      5-min Rain = 0
KCR1 131205Z 02006KT 01/M05 A3031 RMK A01 T00101050  RH  064%=      5-min Rain = 0
KCR1 131206Z 02006KT 01/M05 A3031 RMK A01 T00111049  RH  064%=      5-min Rain = 0
KCR1 131207Z 03005KT 01/M05 A3031 RMK A01 T00111050  RH  064%=      5-min Rain = 0
KCR1 131208Z 03005KT 01/M05 A3031 RMK A01 T00111050  RH  064%=      5-min Rain = 0
KCR1 131209Z 03005KT 01/M05 A3031 RMK A01 T00111050  RH  064%=      5-min Rain = 0
KCR1 131210Z 03005KT 01/M05 A3031 RMK A01 T00111049  RH  064%=      5-min Rain = 0
KCR1 131211Z 03005KT 01/M05 A3031 RMK A01 T00111049  RH  064%=      5-min Rain = 0
KCR1 131212Z 03005KT 01/M05 A3031 RMK A01 T00121049  RH  064%=      5-min Rain = 0
KCR1 131213Z 03006KT 01/M05 A3031 RMK A01 T00121049  RH  064%=      5-min Rain = 0
KCR1 131214Z 02006KT 01/M05 A3032 RMK A01 T00131049  RH  063%=      5-min Rain = 0
KCR1 131215Z 02006KT 01/M05 A3032 RMK A01 T00131050  RH  063%=      5-min Rain = 0
KCR1 131216Z 02006KT 01/M05 A3032 RMK A01 T00131049  RH  063%=      5-min Rain = 0
KCR1 131217Z 01006KT 01/M05 A3032 RMK A01 T00131049  RH  063%=      5-min Rain = 0
KCR1 131218Z 35005KT 01/M05 A3032 RMK A01 T00141049  RH  063%=      5-min Rain = 0
KCR1 131219Z 35005KT 01/M05 A3032 RMK A01 T00141049  RH  063%=      5-min Rain = 0
KCR1 131220Z 35005KT 01/M05 A3032 RMK A01 T00141049  RH  063%=      5-min Rain = 0
KCR1 131221Z 01006KT 01/M05 A3032 RMK A01 T00141049  RH  063%=      5-min Rain = 0
KCR1 131222Z 01007KT 02/M05 A3032 RMK A01 T00151048  RH  063%=      5-min Rain = 0
KCR1 131223Z 00006KT 02/M05 A3032 RMK A01 T00161049  RH  062%=      5-min Rain = 0
KCR1 131224Z 36006KT 02/M05 A3032 RMK A01 T00161048  RH  062%=      5-min Rain = 0
KCR1 131225Z 01007KT 02/M05 A3033 RMK A01 T00161048  RH  062%=      5-min Rain = 0
KCR1 131226Z 01007KT 02/M05 A3033 RMK A01 T00161048  RH  062%=      5-min Rain = 0
KCR1 131227Z 01008KT 02/M05 A3033 RMK A01 T00161049  RH  062%=      5-min Rain = 0
KCR1 131228Z 01008KT 02/M05 A3033 RMK A01 T00161049  RH  062%=      5-min Rain = 0
KCR1 131229Z 01007KT 02/M05 A3033 RMK A01 T00161049  RH  062%=      5-min Rain = 0
KCR1 131230Z 00008KT 02/M05 A3033 RMK A01 T00151049  RH  062%=      5-min Rain = 0
KCR1 131231Z 01008KT 01/M05 A3033 RMK A01 T00141049  RH  063%=      5-min Rain = 0
KCR1 131232Z 01008KT 01/M05 A3033 RMK A01 T00131049  RH  063%=      5-min Rain = 0
KCR1 131233Z 01007KT 01/M05 A3033 RMK A01 T00121050  RH  063%=      5-min Rain = 0
KCR1 131234Z 01007KT 01/M05 A3033 RMK A01 T00121050  RH  063%=      5-min Rain = 0
KCR1 131235Z 00007KT 01/M05 A3033 RMK A01 T00111050  RH  064%=      5-min Rain = 0
KCR1 131236Z 00007KT 01/M05 A3033 RMK A01 T00101050  RH  064%=      5-min Rain = 0
KCR1 131237Z 00007KT 01/M05 A3033 RMK A01 T00101050  RH  064%=      5-min Rain = 0
KCR1 131238Z 00007KT 01/M05 A3033 RMK A01 T00091050  RH  065%=      5-min Rain = 0
KCR1 131239Z 00007KT 01/M05 A3033 RMK A01 T00091050  RH  065%=      5-min Rain = 0
KCR1 131240Z 00007KT 01/M05 A3033 RMK A01 T00081050  RH  065%=      5-min Rain = 0
KCR1 131241Z 00007KT 01/M05 A3033 RMK A01 T00081050  RH  065%=      5-min Rain = 0
KCR1 131242Z 36007KT 01/M05 A3033 RMK A01 T00081050  RH  065%=      5-min Rain = 0
KCR1 131243Z 00007KT 01/M05 A3033 RMK A01 T00081051  RH  065%=      5-min Rain = 0
KCR1 131244Z 36007KT 01/M05 A3033 RMK A01 T00091050  RH  065%=      5-min Rain = 0
KCR1 131245Z 36006KT 01/M05 A3033 RMK A01 T00091050  RH  065%=      5-min Rain = 0
KCR1 131246Z 36006KT 01/M05 A3033 RMK A01 T00101050  RH  065%=      5-min Rain = 0
KCR1 131247Z 35006KT 01/M05 A3033 RMK A01 T00101049  RH  065%=      5-min Rain = 0
KCR1 131248Z 35006KT 01/M05 A3033 RMK A01 T00091049  RH  065%=      5-min Rain = 0
KCR1 131249Z 35006KT 01/M05 A3033 RMK A01 T00081049  RH  066%=      5-min Rain = 0
KCR1 131250Z 35006KT 01/M05 A3033 RMK A01 T00071049  RH  066%=      5-min Rain = 0
KCR1 131251Z 35006KT 01/M05 A3033 RMK A01 T00061049  RH  067%=      5-min Rain = 0
KCR1 131252Z 35006KT 01/M05 A3033 RMK A01 T00061049  RH  067%=      5-min Rain = 0
KCR1 131253Z 35007KT 01/M05 A3033 RMK A01 T00061049  RH  067%=      5-min Rain = 0
KCR1 131254Z 36006KT 01/M05 A3033 RMK A01 T00071049  RH  066%=      5-min Rain = 0
KCR1 131255Z 35006KT 01/M05 A3033 RMK A01 T00081048  RH  066%=      5-min Rain = 0
KCR1 131256Z 36006KT 01/M05 A3033 RMK A01 T00081048  RH  066%=      5-min Rain = 0
KCR1 131257Z 36006KT 01/M05 A3033 RMK A01 T00081049  RH  066%=      5-min Rain = 0
KCR1 131258Z 00006KT 01/M05 A3033 RMK A01 T00081049  RH  065%=      5-min Rain = 0
KCR1 131259Z 00006KT 01/M05 A3033 RMK A01 T00081049  RH  065%=      5-min Rain = 0
KCR1 131300Z 00006KT 01/M05 A3033 RMK A01 T00091049  RH  065%=      5-min Rain = 0
KCR1 131301Z 36006KT 01/M05 A3033 RMK A01 T00091050  RH  065%=      5-min Rain = 0
KCR1 131302Z 00006KT 01/M05 A3033 RMK A01 T00101050  RH  065%=      5-min Rain = 0
KCR1 131303Z 00006KT 01/M05 A3033 RMK A01 T00101050  RH  065%=      5-min Rain = 0
KCR1 131304Z 00006KT 01/M05 A3033 RMK A01 T00101050  RH  064%=      5-min Rain = 0
KCR1 131305Z 36006KT 01/M05 A3033 RMK A01 T00101050  RH  064%=      5-min Rain = 0
KCR1 131306Z 36006KT 01/M05 A3033 RMK A01 T00101050  RH  064%=      5-min Rain = 0
KCR1 131307Z 36006KT 01/M05 A3033 RMK A01 T00101050  RH  064%=      5-min Rain = 0
KCR1 131308Z 36006KT 01/M05 A3034 RMK A01 T00111050  RH  064%=      5-min Rain = 0
KCR1 131309Z 36006KT 01/M05 A3034 RMK A01 T00111050  RH  064%=      5-min Rain = 0
KCR1 131310Z 35006KT 01/M05 A3034 RMK A01 T00111050  RH  064%=      5-min Rain = 0
KCR1 131311Z 35006KT 01/M05 A3034 RMK A01 T00111050  RH  064%=      5-min Rain = 0
KCR1 131312Z 35006KT 01/M05 A3034 RMK A01 T00111050  RH  064%=      5-min Rain = 0
KCR1 131313Z 35006KT 01/M05 A3034 RMK A01 T00121049  RH  064%=      5-min Rain = 0
KCR1 131314Z 35006KT 01/M05 A3034 RMK A01 T00131050  RH  063%=      5-min Rain = 0
KCR1 131315Z 35006KT 01/M05 A3035 RMK A01 T00141050  RH  063%=      5-min Rain = 0
KCR1 131316Z 35006KT 01/M05 A3035 RMK A01 T00141050  RH  062%=      5-min Rain = 0
KCR1 131317Z 35006KT 02/M05 A3035 RMK A01 T00151050  RH  062%=      5-min Rain = 0
KCR1 131318Z 35006KT 02/M05 A3035 RMK A01 T00161050  RH  061%=      5-min Rain = 0
KCR1 131319Z 34006KT 02/M05 A3035 RMK A01 T00171050  RH  061%=      5-min Rain = 0
KCR1 131320Z 34006KT 02/M05 A3035 RMK A01 T00181050  RH  061%=      5-min Rain = 0
KCR1 131321Z 34005KT 02/M05 A3035 RMK A01 T00181050  RH  061%=      5-min Rain = 0
KCR1 131322Z 35005KT 02/M05 A3035 RMK A01 T00191050  RH  060%=      5-min Rain = 0
KCR1 131323Z 34005KT 02/M05 A3035 RMK A01 T00201050  RH  060%=      5-min Rain = 0
KCR1 131324Z 34005KT 02/M05 A3035 RMK A01 T00211050  RH  059%=      5-min Rain = 0
KCR1 131325Z 34005KT 02/M05 A3036 RMK A01 T00221050  RH  059%=      5-min Rain = 0
KCR1 131326Z 34005KT 02/M05 A3036 RMK A01 T00231050  RH  058%=      5-min Rain = 0
KCR1 131327Z 34005KT 02/M05 A3036 RMK A01 T00241050  RH  058%=      5-min Rain = 0
KCR1 131328Z 34005KT 02/M05 A3036 RMK A01 T00241050  RH  058%=      5-min Rain = 0
KCR1 131329Z 34005KT 03/M05 A3036 RMK A01 T00251050  RH  058%=      5-min Rain = 0
KCR1 131330Z 34005KT 03/M05 A3036 RMK A01 T00251050  RH  058%=      5-min Rain = 0
KCR1 131331Z 34005KT 03/M05 A3036 RMK A01 T00251050  RH  058%=      5-min Rain = 0
KCR1 131332Z 34004KT 03/M05 A3036 RMK A01 T00261050  RH  058%=      5-min Rain = 0
KCR1 131333Z 34005KT 03/M05 A3036 RMK A01 T00261050  RH  057%=      5-min Rain = 0
KCR1 131334Z 34004KT 03/M05 A3036 RMK A01 T00271050  RH  057%=      5-min Rain = 0
KCR1 131335Z 34005KT 03/M05 A3036 RMK A01 T00271050  RH  057%=      5-min Rain = 0
KCR1 131336Z 35004KT 03/M05 A3036 RMK A01 T00281050  RH  057%=      5-min Rain = 0
KCR1 131337Z 35005KT 03/M05 A3036 RMK A01 T00281049  RH  057%=      5-min Rain = 0
KCR1 131338Z 35005KT 03/M05 A3036 RMK A01 T00291050  RH  056%=      5-min Rain = 0
KCR1 131339Z 35005KT 03/M05 A3036 RMK A01 T00291050  RH  056%=      5-min Rain = 0
KCR1 131340Z 35004KT 03/M05 A3036 RMK A01 T00301050  RH  056%=      5-min Rain = 0
KCR1 131341Z 35004KT 03/M05 A3036 RMK A01 T00301050  RH  056%=      5-min Rain = 0
KCR1 131342Z 35004KT 03/M05 A3036 RMK A01 T00311049  RH  056%=      5-min Rain = 0
KCR1 131343Z 36004KT 03/M05 A3036 RMK A01 T00321049  RH  055%=      5-min Rain = 0
KCR1 131344Z 36004KT 03/M05 A3036 RMK A01 T00321049  RH  055%=      5-min Rain = 0
KCR1 131345Z 00004KT 03/M05 A3036 RMK A01 T00321050  RH  055%=      5-min Rain = 0
KCR1 131346Z 00004KT 03/M05 A3036 RMK A01 T00321049  RH  055%=      5-min Rain = 0
KCR1 131347Z 00004KT 03/M05 A3036 RMK A01 T00331048  RH  055%=      5-min Rain = 0
KCR1 131348Z 01004KT 03/M05 A3036 RMK A01 T00331048  RH  055%=      5-min Rain = 0
KCR1 131349Z 01004KT 03/M05 A3036 RMK A01 T00331049  RH  055%=      5-min Rain = 0
KCR1 131350Z 01004KT 03/M05 A3036 RMK A01 T00331049  RH  055%=      5-min Rain = 0
KCR1 131351Z 01003KT 03/M05 A3036 RMK A01 T00331048  RH  055%=      5-min Rain = 0
KCR1 131352Z 01004KT 03/M05 A3036 RMK A01 T00331048  RH  056%=      5-min Rain = 0
KCR1 131353Z 01004KT 03/M05 A3037 RMK A01 T00341047  RH  055%=      5-min Rain = 0
KCR1 131354Z 01004KT 04/M05 A3037 RMK A01 T00351047  RH  055%=      5-min Rain = 0
KCR1 131355Z 01003KT 04/M05 A3037 RMK A01 T00351046  RH  056%=      5-min Rain = 0
KCR1 131356Z 01004KT 04/M05 A3037 RMK A01 T00351045  RH  056%=      5-min Rain = 0
KCR1 131357Z 02004KT 04/M05 A3037 RMK A01 T00351046  RH  055%=      5-min Rain = 0
KCR1 131358Z 02004KT 04/M05 A3037 RMK A01 T00361047  RH  055%=      5-min Rain = 0
KCR1 131359Z 02004KT 04/M05 A3037 RMK A01 T00361048  RH  054%=      5-min Rain = 0
KCR1 131400Z 02005KT 04/M05 A3037 RMK A01 T00381046  RH  054%=      5-min Rain = 0
KCR1 131401Z 01004KT 04/M05 A3037 RMK A01 T00381046  RH  054%=      5-min Rain = 0
KCR1 131402Z 01004KT 04/M05 A3037 RMK A01 T00381046  RH  054%=      5-min Rain = 0
KCR1 131403Z 01004KT 04/M05 A3037 RMK A01 T00391046  RH  054%=      5-min Rain = 0
KCR1 131404Z 01004KT 04/M05 A3037 RMK A01 T00401045  RH  054%=      5-min Rain = 0
KCR1 131405Z 01004KT 04/M05 A3037 RMK A01 T00401046  RH  053%=      5-min Rain = 0
KCR1 131406Z 00004KT 04/M05 A3037 RMK A01 T00411045  RH  054%=      5-min Rain = 0
KCR1 131407Z 02004KT 04/M04 A3037 RMK A01 T00421044  RH  054%=      5-min Rain = 0
KCR1 131408Z 01004KT 04/M04 A3037 RMK A01 T00441044  RH  053%=      5-min Rain = 0
KCR1 131409Z 01004KT 04/M05 A3037 RMK A01 T00441045  RH  052%=      5-min Rain = 0
KCR1 131410Z 01004KT 05/M04 A3037 RMK A01 T00451044  RH  052%=      5-min Rain = 0
KCR1 131411Z 01004KT 05/M05 A3037 RMK A01 T00461045  RH  052%=      5-min Rain = 0
KCR1 131412Z 03004KT 05/M04 A3037 RMK A01 T00471044  RH  051%=      5-min Rain = 0
KCR1 131413Z 02004KT 05/M04 A3037 RMK A01 T00481044  RH  051%=      5-min Rain = 0
KCR1 131414Z 02004KT 05/M04 A3037 RMK A01 T00481043  RH  052%=      5-min Rain = 0
KCR1 131415Z 02005KT 05/M04 A3037 RMK A01 T00491043  RH  051%=      5-min Rain = 0
KCR1 131416Z 01005KT 05/M04 A3037 RMK A01 T00511042  RH  051%=      5-min Rain = 0
KCR1 131417Z 02005KT 05/M04 A3037 RMK A01 T00521041  RH  051%=      5-min Rain = 0
KCR1 131418Z 03005KT 05/M04 A3037 RMK A01 T00531044  RH  050%=      5-min Rain = 0
KCR1 131419Z 04006KT 05/M05 A3037 RMK A01 T00541046  RH  049%=      5-min Rain = 0
KCR1 131420Z 04005KT 05/M05 A3037 RMK A01 T00541048  RH  048%=      5-min Rain = 0
KCR1 131421Z 04006KT 06/M05 A3037 RMK A01 T00551045  RH  048%=      5-min Rain = 0
KCR1 131422Z 04005KT 06/M05 A3037 RMK A01 T00561046  RH  048%=      5-min Rain = 0
KCR1 131423Z 04005KT 06/M05 A3037 RMK A01 T00561045  RH  048%=      5-min Rain = 0
KCR1 131424Z 04006KT 06/M04 A3037 RMK A01 T00571044  RH  048%=      5-min Rain = 0
KCR1 131425Z 04006KT 06/M05 A3037 RMK A01 T00571045  RH  048%=      5-min Rain = 0
KCR1 131426Z 03006KT 06/M05 A3037 RMK A01 T00571045  RH  048%=      5-min Rain = 0
KCR1 131427Z 04005KT 06/M04 A3037 RMK A01 T00571044  RH  048%=      5-min Rain = 0
KCR1 131428Z 04005KT 06/M04 A3037 RMK A01 T00581042  RH  049%=      5-min Rain = 0
KCR1 131429Z 05006KT 06/M04 A3038 RMK A01 T00591043  RH  048%=      5-min Rain = 0
KCR1 131430Z 04005KT 06/M04 A3038 RMK A01 T00601044  RH  047%=      5-min Rain = 0
KCR1 131431Z 05006KT 06/M04 A3038 RMK A01 T00621042  RH  047%=      5-min Rain = 0
KCR1 131432Z 05007KT 06/M04 A3038 RMK A01 T00641044  RH  046%=      5-min Rain = 0
KCR1 131433Z 05006KT 06/M05 A3038 RMK A01 T00641046  RH  045%=      5-min Rain = 0
KCR1 131434Z 05006KT 06/M05 A3038 RMK A01 T00631046  RH  045%=      5-min Rain = 0
KCR1 131435Z 05007KT 06/M05 A3038 RMK A01 T00641046  RH  045%=      5-min Rain = 0
KCR1 131436Z 05007KT 06/M05 A3038 RMK A01 T00641047  RH  045%=      5-min Rain = 0
KCR1 131437Z 05007KT 06/M05 A3038 RMK A01 T00641046  RH  045%=      5-min Rain = 0
KCR1 131438Z 05007KT 07/M05 A3038 RMK A01 T00651046  RH  045%=      5-min Rain = 0
KCR1 131439Z 05006KT 06/M05 A3038 RMK A01 T00641047  RH  045%=      5-min Rain = 0
KCR1 131440Z 05007KT 07/M05 A3038 RMK A01 T00651045  RH  045%=      5-min Rain = 0
KCR1 131441Z 05008KT 07/M05 A3038 RMK A01 T00661046  RH  045%=      5-min Rain = 0
KCR1 131442Z 05007KT 07/M05 A3038 RMK A01 T00661045  RH  045%=      5-min Rain = 0
KCR1 131443Z 05007KT 07/M05 A3038 RMK A01 T00661045  RH  045%=      5-min Rain = 0
KCR1 131444Z 05007KT 07/M05 A3038 RMK A01 T00651045  RH  045%=      5-min Rain = 0
KCR1 131445Z 05007KT 07/M04 A3038 RMK A01 T00661044  RH  045%=      5-min Rain = 0
KCR1 131446Z 05007KT 07/M04 A3038 RMK A01 T00661043  RH  045%=      5-min Rain = 0
KCR1 131447Z 05006KT 07/M04 A3038 RMK A01 T00661043  RH  046%=      5-min Rain = 0
KCR1 131448Z 05008KT 07/M04 A3038 RMK A01 T00671042  RH  046%=      5-min Rain = 0
KCR1 131449Z 05007KT 07/M04 A3038 RMK A01 T00681042  RH  045%=      5-min Rain = 0
KCR1 131450Z 06007KT 07/M04 A3038 RMK A01 T00681042  RH  045%=      5-min Rain = 0
KCR1 131451Z 07006KT 07/M04 A3038 RMK A01 T00681043  RH  045%=      5-min Rain = 0
KCR1 131452Z 06006KT 07/M04 A3038 RMK A01 T00691044  RH  045%=      5-min Rain = 0
KCR1 131453Z 05007KT 07/M04 A3038 RMK A01 T00681043  RH  045%=      5-min Rain = 0
KCR1 131454Z 05007KT 07/M04 A3038 RMK A01 T00681042  RH  045%=      5-min Rain = 0
KCR1 131455Z 05007KT 07/M04 A3038 RMK A01 T00711039  RH  045%=      5-min Rain = 0
KCR1 131456Z 07007KT 07/M04 A3038 RMK A01 T00731042  RH  044%=      5-min Rain = 0
KCR1 131457Z 05006KT 07/M04 A3038 RMK A01 T00731042  RH  044%=      5-min Rain = 0
KCR1 131458Z 06007KT 07/M04 A3038 RMK A01 T00731041  RH  044%=      5-min Rain = 0
KCR1 131459Z 06007KT 07/M04 A3038 RMK A01 T00741042  RH  044%=      5-min Rain = 0
KCR1 131500Z 06007KT 07/M04 A3038 RMK A01 T00741042  RH  043%=      5-min Rain = 0
KCR1 131501Z 06007KT 07/M04 A3038 RMK A01 T00741043  RH  043%=      5-min Rain = 0
KCR1 131502Z 06007KT 07/M04 A3038 RMK A01 T00741040  RH  044%=      5-min Rain = 0
KCR1 131503Z 06006KT 08/M04 A3038 RMK A01 T00751041  RH  043%=      5-min Rain = 0
KCR1 131504Z 06006KT 08/M04 A3038 RMK A01 T00751041  RH  044%=      5-min Rain = 0
KCR1 131505Z 06007KT 08/M04 A3038 RMK A01 T00751041  RH  044%=      5-min Rain = 0
KCR1 131506Z 06006KT 08/M04 A3038 RMK A01 T00761041  RH  043%=      5-min Rain = 0
KCR1 131507Z 06006KT 08/M04 A3038 RMK A01 T00761041  RH  043%=      5-min Rain = 0
KCR1 131508Z 07006KT 08/M04 A3039 RMK A01 T00781039  RH  043%=      5-min Rain = 0
KCR1 131509Z 05005KT 08/M04 A3039 RMK A01 T00781039  RH  043%=      5-min Rain = 0
KCR1 131510Z 06006KT 08/M04 A3039 RMK A01 T00791039  RH  043%=      5-min Rain = 0
KCR1 131511Z 07006KT 08/M04 A3039 RMK A01 T00781038  RH  044%=      5-min Rain = 0
KCR1 131512Z 05006KT 08/M04 A3039 RMK A01 T00791037  RH  044%=      5-min Rain = 0
KCR1 131513Z 05007KT 08/M04 A3039 RMK A01 T00811036  RH  043%=      5-min Rain = 0
KCR1 131514Z 07006KT 08/M04 A3039 RMK A01 T00811037  RH  043%=      5-min Rain = 0
KCR1 131515Z 06007KT 08/M04 A3039 RMK A01 T00811038  RH  043%=      5-min Rain = 0
KCR1 131516Z 06006KT 08/M04 A3039 RMK A01 T00801038  RH  043%=      5-min Rain = 0
KCR1 131517Z 06008KT 08/M04 A3039 RMK A01 T00831036  RH  043%=      5-min Rain = 0
KCR1 131518Z 07007KT 09/M04 A3039 RMK A01 T00851039  RH  041%=      5-min Rain = 0
KCR1 131519Z 07008KT 09/M04 A3039 RMK A01 T00851041  RH  041%=      5-min Rain = 0
KCR1 131520Z 07008KT 09/M04 A3039 RMK A01 T00891039  RH  040%=      5-min Rain = 0
KCR1 131521Z 08007KT 09/M04 A3039 RMK A01 T00901040  RH  040%=      5-min Rain = 0
KCR1 131522Z 09008KT 09/M04 A3039 RMK A01 T00911040  RH  039%=      5-min Rain = 0
KCR1 131523Z 08007KT 09/M04 A3039 RMK A01 T00921039  RH  039%=      5-min Rain = 0
KCR1 131524Z 07009KT 09/M04 A3039 RMK A01 T00931040  RH  039%=      5-min Rain = 0
KCR1 131525Z 07008KT 09/M04 A3039 RMK A01 T00931041  RH  038%=      5-min Rain = 0
KCR1 131526Z 07007KT 09/M04 A3039 RMK A01 T00911042  RH  039%=      5-min Rain = 0
KCR1 131527Z 07010KT 09/M04 A3039 RMK A01 T00921040  RH  039%=      5-min Rain = 0
KCR1 131528Z 07008KT 09/M04 A3039 RMK A01 T00911044  RH  038%=      5-min Rain = 0
KCR1 131529Z 07009KT 09/M04 A3039 RMK A01 T00901043  RH  039%=      5-min Rain = 0
KCR1 131530Z 07010KT 09/M04 A3039 RMK A01 T00921043  RH  038%=      5-min Rain = 0
KCR1 131531Z 07009KT 09/M04 A3039 RMK A01 T00931044  RH  038%=      5-min Rain = 0
KCR1 131532Z 08007KT 09/M04 A3039 RMK A01 T00931041  RH  039%=      5-min Rain = 0
KCR1 131533Z 07009KT 10/M04 A3039 RMK A01 T00951042  RH  038%=      5-min Rain = 0
KCR1 131534Z 07008KT 10/M04 A3039 RMK A01 T00961043  RH  037%=      5-min Rain = 0
KCR1 131535Z 08007KT 10/M04 A3039 RMK A01 T00961044  RH  037%=      5-min Rain = 0
KCR1 131536Z 08008KT 10/M04 A3039 RMK A01 T00961044  RH  037%=      5-min Rain = 0
KCR1 131537Z 08007KT 10/M05 A3039 RMK A01 T00961046  RH  036%=      5-min Rain = 0
KCR1 131538Z 08006KT 10/M04 A3039 RMK A01 T00961044  RH  037%=      5-min Rain = 0
KCR1 131539Z 07009KT 10/M05 A3039 RMK A01 T00961045  RH  037%=      5-min Rain = 0
KCR1 131540Z 07008KT 10/M05 A3039 RMK A01 T00961050  RH  035%=      5-min Rain = 0
KCR1 131541Z 06009KT 10/M05 A3039 RMK A01 T00971048  RH  035%=      5-min Rain = 0
KCR1 131542Z 07007KT 10/M05 A3039 RMK A01 T00981048  RH  036%=      5-min Rain = 0
KCR1 131543Z 06007KT 10/M05 A3039 RMK A01 T00961047  RH  036%=      5-min Rain = 0
KCR1 131544Z 06008KT 10/M04 A3039 RMK A01 T00981044  RH  036%=      5-min Rain = 0
KCR1 131545Z 07008KT 10/M04 A3039 RMK A01 T01011044  RH  036%=      5-min Rain = 0
KCR1 131546Z 06008KT 10/M05 A3039 RMK A01 T01041045  RH  035%=      5-min Rain = 0
KCR1 131547Z 06009KT 10/M05 A3039 RMK A01 T01041045  RH  035%=      5-min Rain = 0
KCR1 131548Z 07008KT 10/M05 A3039 RMK A01 T01041045  RH  035%=      5-min Rain = 0
KCR1 131549Z 07007KT 10/M05 A3039 RMK A01 T01021048  RH  035%=      5-min Rain = 0
KCR1 131550Z 09008KT 10/M05 A3039 RMK A01 T01021048  RH  035%=      5-min Rain = 0
KCR1 131551Z 08008KT 10/M05 A3039 RMK A01 T01021047  RH  035%=      5-min Rain = 0
KCR1 131552Z 06010KT 10/M05 A3039 RMK A01 T01031050  RH  034%=      5-min Rain = 0
KCR1 131553Z 06011KT 10/M05 A3039 RMK A01 T01041051  RH  033%=      5-min Rain = 0
KCR1 131554Z 07007KT 10/M05 A3039 RMK A01 T01041052  RH  033%=      5-min Rain = 0
KCR1 131555Z 06010KT 11/M05 A3039 RMK A01 T01051052  RH  033%=      5-min Rain = 0
KCR1 131556Z 07010KT 11/M05 A3039 RMK A01 T01071053  RH  032%=      5-min Rain = 0
KCR1 131557Z 07009KT 11/M06 A3039 RMK A01 T01081057  RH  031%=      5-min Rain = 0
KCR1 131558Z 08008KT 11/M06 A3039 RMK A01 T01061056  RH  031%=      5-min Rain = 0
KCR1 131559Z 08009KT 11/M06 A3039 RMK A01 T01061056  RH  032%=      5-min Rain = 0
KCR1 131600Z 08008KT 11/M05 A3039 RMK A01 T01081053  RH  032%=      5-min Rain = 0
KCR1 131601Z 07008KT 11/M05 A3039 RMK A01 T01091053  RH  032%=      5-min Rain = 0
KCR1 131602Z 06009KT 11/M05 A3039 RMK A01 T01091054  RH  032%=      5-min Rain = 0
KCR1 131603Z 07008KT 11/M06 A3039 RMK A01 T01081055  RH  031%=      5-min Rain = 0
KCR1 131604Z 08007KT 11/M06 A3039 RMK A01 T01071056  RH  031%=      5-min Rain = 0
KCR1 131605Z 09009KT 11/M05 A3039 RMK A01 T01061054  RH  032%=      5-min Rain = 0
KCR1 131606Z 10009KT 11/M06 A3039 RMK A01 T01071055  RH  032%=      5-min Rain = 0
KCR1 131607Z 08009KT 11/M05 A3039 RMK A01 T01071054  RH  032%=      5-min Rain = 0
KCR1 131608Z 07009KT 11/M06 A3039 RMK A01 T01081055  RH  031%=      5-min Rain = 0
KCR1 131609Z 08008KT 11/M06 A3039 RMK A01 T01081057  RH  031%=      5-min Rain = 0
KCR1 131610Z 07010KT 11/M06 A3039 RMK A01 T01091058  RH  030%=      5-min Rain = 0
KCR1 131611Z 06009KT 11/M06 A3039 RMK A01 T01101064  RH  029%=      5-min Rain = 0
KCR1 131612Z 06010KT 11/M06 A3039 RMK A01 T01091062  RH  030%=      5-min Rain = 0
KCR1 131613Z 07010KT 11/M06 A3039 RMK A01 T01101059  RH  030%=      5-min Rain = 0
KCR1 131614Z 08008KT 11/M06 A3039 RMK A01 T01111055  RH  031%=      5-min Rain = 0
KCR1 131615Z 07007G12KT 11/M05 A3039 RMK A01 T01111054  RH  031%=      5-min Rain = 0
KCR1 131616Z 08009KT 11/M05 A3039 RMK A01 T01141053  RH  031%=      5-min Rain = 0
KCR1 131617Z 07006KT 11/M06 A3039 RMK A01 T01111056  RH  030%=      5-min Rain = 0
KCR1 131618Z 06010KT 11/M06 A3039 RMK A01 T01121055  RH  031%=      5-min Rain = 0
KCR1 131619Z 06008KT 11/M06 A3039 RMK A01 T01131062  RH  029%=      5-min Rain = 0
KCR1 131620Z 06010KT 12/M06 A3039 RMK A01 T01151058  RH  029%=      5-min Rain = 0
KCR1 131621Z 06011KT 12/M06 A3039 RMK A01 T01171061  RH  028%=      5-min Rain = 0
KCR1 131622Z 07009KT 11/M07 A3039 RMK A01 T01141065  RH  028%=      5-min Rain = 0
KCR1 131623Z 08009KT 11/M06 A3039 RMK A01 T01141062  RH  029%=      5-min Rain = 0
KCR1 131624Z 07009KT 12/M06 A3039 RMK A01 T01161063  RH  028%=      5-min Rain = 0
KCR1 131625Z 06011KT 12/M06 A3039 RMK A01 T01161063  RH  028%=      5-min Rain = 0
KCR1 131626Z 06011KT 12/M07 A3039 RMK A01 T01161065  RH  027%=      5-min Rain = 0
KCR1 131627Z 06010KT 11/M06 A3039 RMK A01 T01141063  RH  028%=      5-min Rain = 0
KCR1 131628Z 07010KT 11/M07 A3039 RMK A01 T01141065  RH  028%=      5-min Rain = 0
KCR1 131629Z 08011KT 11/M06 A3039 RMK A01 T01141064  RH  028%=      5-min Rain = 0
KCR1 131630Z 07007KT 12/M06 A3039 RMK A01 T01151061  RH  029%=      5-min Rain = 0
KCR1 131631Z 06007KT 12/M06 A3039 RMK A01 T01171060  RH  029%=      5-min Rain = 0
KCR1 131632Z 07009KT 12/M06 A3039 RMK A01 T01171059  RH  029%=      5-min Rain = 0
KCR1 131633Z 08010KT 12/M06 A3039 RMK A01 T01181055  RH  029%=      5-min Rain = 0
KCR1 131634Z 07007KT 12/M06 A3039 RMK A01 T01191059  RH  028%=      5-min Rain = 0
KCR1 131635Z 05009KT 12/M06 A3039 RMK A01 T01171059  RH  029%=      5-min Rain = 0
KCR1 131636Z 07008KT 12/M06 A3039 RMK A01 T01201056  RH  029%=      5-min Rain = 0
KCR1 131637Z 10009KT 12/M05 A3039 RMK A01 T01231053  RH  029%=      5-min Rain = 0
KCR1 131638Z 07009KT 12/M06 A3039 RMK A01 T01221058  RH  028%=      5-min Rain = 0
KCR1 131639Z 07011KT 12/M07 A3039 RMK A01 T01211065  RH  027%=      5-min Rain = 0
KCR1 131640Z 07011KT 12/M06 A3039 RMK A01 T01181063  RH  028%=      5-min Rain = 0
KCR1 131641Z 06011KT 12/M06 A3039 RMK A01 T01171063  RH  028%=      5-min Rain = 0
KCR1 131642Z 06009KT 12/M06 A3039 RMK A01 T01151064  RH  028%=      5-min Rain = 0
KCR1 131643Z 05009KT 12/M06 A3039 RMK A01 T01171059  RH  029%=      5-min Rain = 0
KCR1 131644Z 05007KT 12/M06 A3039 RMK A01 T01191055  RH  029%=      5-min Rain = 0
KCR1 131645Z 06008KT 12/M05 A3039 RMK A01 T01201054  RH  029%=      5-min Rain = 0
KCR1 131646Z 09007KT 12/M06 A3039 RMK A01 T01211056  RH  029%=      5-min Rain = 0
KCR1 131647Z 07006KT 12/M05 A3039 RMK A01 T01221053  RH  029%=      5-min Rain = 0
KCR1 131648Z 06009KT 13/M06 A3039 RMK A01 T01251055  RH  028%=      5-min Rain = 0
KCR1 131649Z 05010KT 13/M06 A3039 RMK A01 T01251061  RH  027%=      5-min Rain = 0
KCR1 131650Z 07011KT 12/M06 A3039 RMK A01 T01221062  RH  027%=      5-min Rain = 0
KCR1 131651Z 08009KT 12/M06 A3039 RMK A01 T01211062  RH  027%=      5-min Rain = 0
KCR1 131652Z 08009KT 12/M06 A3039 RMK A01 T01201059  RH  028%=      5-min Rain = 0
KCR1 131653Z 08008KT 12/M06 A3039 RMK A01 T01191058  RH  029%=      5-min Rain = 0
KCR1 131654Z 08009KT 12/M06 A3039 RMK A01 T01221055  RH  029%=      5-min Rain = 0
KCR1 131655Z 08008KT 12/M06 A3039 RMK A01 T01221058  RH  028%=      5-min Rain = 0
KCR1 131656Z 07008KT 12/M06 A3039 RMK A01 T01221056  RH  029%=      5-min Rain = 0
KCR1 131657Z 05008KT 12/M06 A3039 RMK A01 T01221055  RH  029%=      5-min Rain = 0
KCR1 131658Z 05010KT 12/M05 A3039 RMK A01 T01231054  RH  028%=      5-min Rain = 0
KCR1 131659Z 06009KT 12/M05 A3039 RMK A01 T01231054  RH  028%=      5-min Rain = 0
KCR1 131700Z 07008KT 13/M05 A3039 RMK A01 T01261050  RH  029%=      5-min Rain = 0
KCR1 131701Z 08011KT 13/M05 A3039 RMK A01 T01291050  RH  028%=      5-min Rain = 0
KCR1 131702Z 09010KT 13/M05 A3039 RMK A01 T01291052  RH  028%=      5-min Rain = 0
KCR1 131703Z 06007KT 13/M05 A3039 RMK A01 T01271052  RH  028%=      5-min Rain = 0
KCR1 131704Z 06005KT 13/M05 A3039 RMK A01 T01261053  RH  028%=      5-min Rain = 0
KCR1 131705Z 07005G11KT 13/M05 A3039 RMK A01 T01261049  RH  029%=      5-min Rain = 0
KCR1 131706Z 06009KT 13/M05 A3039 RMK A01 T01271050  RH  029%=      5-min Rain = 0
KCR1 131707Z 06011KT 13/M05 A3039 RMK A01 T01271053  RH  028%=      5-min Rain = 0
KCR1 131708Z 08008KT 13/M05 A3039 RMK A01 T01271052  RH  028%=      5-min Rain = 0
KCR1 131709Z 08008KT 13/M06 A3039 RMK A01 T01261055  RH  028%=      5-min Rain = 0
KCR1 131710Z 09006KT 12/M06 A3039 RMK A01 T01241058  RH  028%=      5-min Rain = 0
KCR1 131711Z 08010G15KT 13/M06 A3039 RMK A01 T01251057  RH  028%=      5-min Rain = 0
KCR1 131712Z 05006KT 13/M06 A3039 RMK A01 T01251055  RH  028%=      5-min Rain = 0
KCR1 131713Z 07008KT 12/M05 A3039 RMK A01 T01241052  RH  029%=      5-min Rain = 0
KCR1 131714Z 06007KT 13/M05 A3039 RMK A01 T01261050  RH  029%=      5-min Rain = 0
KCR1 131715Z 09007KT 13/M05 A3039 RMK A01 T01261050  RH  029%=      5-min Rain = 0
KCR1 131716Z 09008KT 13/M05 A3039 RMK A01 T01281049  RH  029%=      5-min Rain = 0
KCR1 131717Z 09009KT 13/M05 A3039 RMK A01 T01281050  RH  028%=      5-min Rain = 0
KCR1 131718Z 09007KT 13/M05 A3038 RMK A01 T01291052  RH  028%=      5-min Rain = 0
KCR1 131719Z 09010KT 13/M05 A3038 RMK A01 T01281051  RH  028%=      5-min Rain = 0
KCR1 131720Z 07009KT 13/M05 A3038 RMK A01 T01291052  RH  028%=      5-min Rain = 0
KCR1 131721Z 06008KT 13/M05 A3038 RMK A01 T01281053  RH  028%=      5-min Rain = 0
KCR1 131722Z 07010KT 13/M05 A3038 RMK A01 T01291052  RH  028%=      5-min Rain = 0
KCR1 131723Z 06009KT 13/M05 A3038 RMK A01 T01301053  RH  028%=      5-min Rain = 0
KCR1 131724Z 07007KT 13/M05 A3038 RMK A01 T01331051  RH  027%=      5-min Rain = 0
KCR1 131725Z 06006KT 14/M05 A3038 RMK A01 T01351052  RH  027%=      5-min Rain = 0
KCR1 131726Z 07008KT 14/M05 A3038 RMK A01 T01351053  RH  027%=      5-min Rain = 0
KCR1 131727Z 07008KT 13/M05 A3038 RMK A01 T01331052  RH  027%=      5-min Rain = 0
KCR1 131728Z 09009KT 13/M05 A3038 RMK A01 T01341054  RH  027%=      5-min Rain = 0
KCR1 131729Z 08005KT 13/M06 A3038 RMK A01 T01291059  RH  027%=      5-min Rain = 0
KCR1 131730Z 10006KT 13/M06 A3038 RMK A01 T01271056  RH  027%=      5-min Rain = 0
KCR1 131731Z 09007KT 13/M06 A3038 RMK A01 T01281056  RH  027%=      5-min Rain = 0
KCR1 131732Z 08008KT 13/M05 A3038 RMK A01 T01311053  RH  027%=      5-min Rain = 0
KCR1 131733Z 09009KT 13/M06 A3038 RMK A01 T01331055  RH  027%=      5-min Rain = 0
KCR1 131734Z 09007KT 13/M06 A3038 RMK A01 T01331057  RH  026%=      5-min Rain = 0
KCR1 131735Z 07007KT 13/M06 A3038 RMK A01 T01331056  RH  026%=      5-min Rain = 0
KCR1 131736Z 08008KT 13/M05 A3038 RMK A01 T01331054  RH  027%=      5-min Rain = 0
KCR1 131737Z 07010KT 14/M05 A3038 RMK A01 T01361052  RH  027%=      5-min Rain = 0
KCR1 131738Z 06008KT 14/M06 A3038 RMK A01 T01361055  RH  026%=      5-min Rain = 0
KCR1 131739Z 06008KT 13/M06 A3038 RMK A01 T01331055  RH  027%=      5-min Rain = 0
KCR1 131740Z 07008KT 13/M06 A3038 RMK A01 T01311055  RH  027%=      5-min Rain = 0
KCR1 131741Z 07005KT 13/M05 A3038 RMK A01 T01301053  RH  027%=      5-min Rain = 0
KCR1 131742Z 06004KT 13/M05 A3038 RMK A01 T01301052  RH  028%=      5-min Rain = 0
KCR1 131743Z 06004KT 13/M05 A3038 RMK A01 T01311052  RH  028%=      5-min Rain = 0
KCR1 131744Z 07006KT 13/M05 A3038 RMK A01 T01321052  RH  027%=      5-min Rain = 0
KCR1 131745Z 07007KT 14/M05 A3038 RMK A01 T01351048  RH  028%=      5-min Rain = 0
KCR1 131746Z 05009KT 14/M05 A3038 RMK A01 T01391048  RH  027%=      5-min Rain = 0
KCR1 131747Z 04008KT 14/M05 A3038 RMK A01 T01391047  RH  027%=      5-min Rain = 0
KCR1 131748Z 05009KT 14/M05 A3038 RMK A01 T01391048  RH  027%=      5-min Rain = 0
KCR1 131749Z 04008KT 14/M05 A3038 RMK A01 T01371049  RH  027%=      5-min Rain = 0
KCR1 131750Z 04005KT 13/M05 A3038 RMK A01 T01341052  RH  027%=      5-min Rain = 0
KCR1 131751Z 02004KT 13/M05 A3038 RMK A01 T01301053  RH  028%=      5-min Rain = 0
KCR1 131752Z 07008KT 13/M05 A3038 RMK A01 T01291050  RH  028%=      5-min Rain = 0
KCR1 131753Z 08008KT 13/M05 A3038 RMK A01 T01311050  RH  028%=      5-min Rain = 0
KCR1 131754Z 07007KT 13/M05 A3038 RMK A01 T01311050  RH  028%=      5-min Rain = 0
KCR1 131755Z 08007KT 13/M05 A3038 RMK A01 T01301050  RH  028%=      5-min Rain = 0
KCR1 131756Z 10006KT 13/M05 A3038 RMK A01 T01321048  RH  028%=      5-min Rain = 0
KCR1 131757Z 10006KT 13/M05 A3038 RMK A01 T01331050  RH  028%=      5-min Rain = 0
KCR1 131758Z 08007KT 13/M05 A3038 RMK A01 T01321049  RH  028%=      5-min Rain = 0
KCR1 131759Z 07009KT 14/M05 A3038 RMK A01 T01351046  RH  028%=      5-min Rain = 0
KCR1 131800Z 05010KT 14/M05 A3037 RMK A01 T01371046  RH  028%=      5-min Rain = 0
KCR1 131801Z 05009KT 14/M05 A3038 RMK A01 T01381048  RH  027%=      5-min Rain = 0
KCR1 131802Z 05007KT 14/M05 A3038 RMK A01 T01361050  RH  027%=      5-min Rain = 0
KCR1 131803Z 04004KT 14/M05 A3037 RMK A01 T01361049  RH  027%=      5-min Rain = 0
KCR1 131804Z 07005KT 14/M05 A3037 RMK A01 T01361049  RH  027%=      5-min Rain = 0
KCR1 131805Z 08005KT 14/M05 A3037 RMK A01 T01351049  RH  028%=      5-min Rain = 0
KCR1 131806Z 07006KT 14/M05 A3037 RMK A01 T01351048  RH  028%=      5-min Rain = 0
KCR1 131807Z 06008KT 14/M05 A3037 RMK A01 T01371047  RH  027%=      5-min Rain = 0
KCR1 131808Z 06009KT 14/M05 A3037 RMK A01 T01391047  RH  027%=      5-min Rain = 0
KCR1 131809Z 06010KT 14/M05 A3037 RMK A01 T01431046  RH  027%=      5-min Rain = 0
KCR1 131810Z 04008KT 14/M05 A3037 RMK A01 T01421048  RH  026%=      5-min Rain = 0
KCR1 131811Z 04009KT 14/M05 A3037 RMK A01 T01421047  RH  027%=      5-min Rain = 0
KCR1 131812Z 04009KT 14/M05 A3037 RMK A01 T01411048  RH  026%=      5-min Rain = 0
KCR1 131813Z 06008KT 14/M05 A3037 RMK A01 T01401049  RH  027%=      5-min Rain = 0
KCR1 131814Z 07007KT 14/M05 A3037 RMK A01 T01381051  RH  027%=      5-min Rain = 0
KCR1 131815Z 04005KT 14/M05 A3037 RMK A01 T01371050  RH  027%=      5-min Rain = 0
KCR1 131816Z 07008KT 14/M05 A3037 RMK A01 T01381048  RH  027%=      5-min Rain = 0
KCR1 131817Z 07005KT 14/M05 A3037 RMK A01 T01391050  RH  027%=      5-min Rain = 0
KCR1 131818Z 06005KT 14/M05 A3037 RMK A01 T01371050  RH  027%=      5-min Rain = 0
KCR1 131819Z 06005KT 14/M05 A3037 RMK A01 T01391046  RH  027%=      5-min Rain = 0
KCR1 131820Z 06004KT 14/M05 A3037 RMK A01 T01411047  RH  027%=      5-min Rain = 0
KCR1 131821Z 06004KT 14/M05 A3036 RMK A01 T01431048  RH  026%=      5-min Rain = 0
KCR1 131822Z 12001KT 14/M05 A3036 RMK A01 T01411050  RH  026%=      5-min Rain = 0
KCR1 131823Z 08002KT 14/M05 A3036 RMK A01 T01401047  RH  027%=      5-min Rain = 0
KCR1 131824Z 08003KT 14/M04 A3036 RMK A01 T01441044  RH  027%=      5-min Rain = 0
KCR1 131825Z 04007KT 15/M05 A3036 RMK A01 T01471045  RH  026%=      5-min Rain = 0
KCR1 131826Z 07010KT 15/M05 A3036 RMK A01 T01491047  RH  026%=      5-min Rain = 0
KCR1 131827Z 08009KT 15/M05 A3036 RMK A01 T01471048  RH  026%=      5-min Rain = 0
KCR1 131828Z 10009KT 15/M05 A3036 RMK A01 T01451048  RH  026%=      5-min Rain = 0
KCR1 131829Z 10008KT 14/M05 A3036 RMK A01 T01441049  RH  026%=      5-min Rain = 0
KCR1 131830Z 05007KT 14/M05 A3036 RMK A01 T01431049  RH  026%=      5-min Rain = 0
KCR1 131831Z 05009KT 14/M05 A3036 RMK A01 T01431049  RH  026%=      5-min Rain = 0
KCR1 131832Z 07006KT 14/M05 A3036 RMK A01 T01441049  RH  026%=      5-min Rain = 0
KCR1 131833Z 09008KT 14/M05 A3036 RMK A01 T01421049  RH  026%=      5-min Rain = 0
KCR1 131834Z 10010KT 15/M05 A3036 RMK A01 T01461045  RH  026%=      5-min Rain = 0
KCR1 131835Z 09009KT 15/M05 A3036 RMK A01 T01481046  RH  026%=      5-min Rain = 0
KCR1 131836Z 07009KT 15/M05 A3036 RMK A01 T01471048  RH  026%=      5-min Rain = 0
KCR1 131837Z 08006KT 15/M05 A3036 RMK A01 T01451049  RH  026%=      5-min Rain = 0
KCR1 131838Z 08006KT 15/M05 A3036 RMK A01 T01451049  RH  026%=      5-min Rain = 0
KCR1 131839Z 09005KT 15/M05 A3035 RMK A01 T01451046  RH  026%=      5-min Rain = 0
KCR1 131840Z 07004KT 15/M05 A3035 RMK A01 T01451049  RH  026%=      5-min Rain = 0
KCR1 131841Z 01003KT 14/M05 A3035 RMK A01 T01421048  RH  026%=      5-min Rain = 0
KCR1 131842Z 06003KT 14/M05 A3035 RMK A01 T01421048  RH  027%=      5-min Rain = 0
KCR1 131843Z 09003KT 14/M05 A3035 RMK A01 T01431045  RH  027%=      5-min Rain = 0
KCR1 131844Z 07003KT 15/M05 A3035 RMK A01 T01451047  RH  026%=      5-min Rain = 0
KCR1 131845Z 04007KT 15/M05 A3035 RMK A01 T01451046  RH  026%=      5-min Rain = 0
KCR1 131846Z 05008KT 15/M05 A3035 RMK A01 T01481046  RH  026%=      5-min Rain = 0
KCR1 131847Z 04005KT 15/M05 A3035 RMK A01 T01481048  RH  025%=      5-min Rain = 0
KCR1 131848Z 05008KT 15/M05 A3035 RMK A01 T01471046  RH  026%=      5-min Rain = 0
KCR1 131849Z 05008KT 15/M05 A3035 RMK A01 T01511045  RH  026%=      5-min Rain = 0
KCR1 131850Z 05009KT 15/M05 A3035 RMK A01 T01501048  RH  025%=      5-min Rain = 0
KCR1 131851Z 04007KT 15/M05 A3035 RMK A01 T01481047  RH  025%=      5-min Rain = 0
KCR1 131852Z 04004KT 15/M05 A3035 RMK A01 T01481049  RH  025%=      5-min Rain = 0
KCR1 131853Z 04002KT 15/M05 A3035 RMK A01 T01451051  RH  025%=      5-min Rain = 0
KCR1 131854Z 04007KT 14/M05 A3035 RMK A01 T01441048  RH  026%=      5-min Rain = 0
KCR1 131855Z 05008KT 15/M05 A3034 RMK A01 T01471047  RH  026%=      5-min Rain = 0
KCR1 131856Z 08008KT 15/M05 A3034 RMK A01 T01471048  RH  026%=      5-min Rain = 0
KCR1 131857Z 06006KT 15/M05 A3034 RMK A01 T01461049  RH  026%=      5-min Rain = 0
KCR1 131858Z 04005KT 14/M05 A3034 RMK A01 T01441048  RH  026%=      5-min Rain = 0
KCR1 131859Z 05007KT 14/M05 A3034 RMK A01 T01441049  RH  026%=      5-min Rain = 0
KCR1 131900Z 05008KT 14/M05 A3034 RMK A01 T01431048  RH  026%=      5-min Rain = 0
KCR1 131901Z 02005KT 14/M05 A3034 RMK A01 T01441048  RH  026%=      5-min Rain = 0
KCR1 131902Z 08003KT 15/M05 A3034 RMK A01 T01451047  RH  026%=      5-min Rain = 0
KCR1 131903Z 08002KT 15/M05 A3034 RMK A01 T01461047  RH  026%=      5-min Rain = 0
KCR1 131904Z 06006KT 15/M05 A3034 RMK A01 T01461048  RH  026%=      5-min Rain = 0
KCR1 131905Z 07004KT 15/M05 A3034 RMK A01 T01451047  RH  026%=      5-min Rain = 0
KCR1 131906Z 06006KT 15/M05 A3034 RMK A01 T01461046  RH  026%=      5-min Rain = 0
KCR1 131907Z 04006G11KT 15/M05 A3034 RMK A01 T01481045  RH  026%=      5-min Rain = 0
KCR1 131908Z 06008KT 15/M04 A3034 RMK A01 T01511043  RH  026%=      5-min Rain = 0
KCR1 131909Z 04007KT 16/M04 A3034 RMK A01 T01551041  RH  026%=      5-min Rain = 0
KCR1 131910Z 03007KT 16/M04 A3034 RMK A01 T01561044  RH  025%=      5-min Rain = 0
KCR1 131911Z 02008KT 16/M04 A3034 RMK A01 T01561043  RH  025%=      5-min Rain = 0
KCR1 131912Z 06010KT 16/M04 A3034 RMK A01 T01571041  RH  025%=      5-min Rain = 0
KCR1 131913Z 06008KT 16/M04 A3034 RMK A01 T01591043  RH  025%=      5-min Rain = 0
KCR1 131914Z 05006KT 16/M05 A3034 RMK A01 T01561045  RH  025%=      5-min Rain = 0
KCR1 131915Z 04004G9KT 15/M05 A3034 RMK A01 T01521045  RH  025%=      5-min Rain = 0
KCR1 131916Z 04008KT 15/M04 A3034 RMK A01 T01531041  RH  026%=      5-min Rain = 0
KCR1 131917Z 01007KT 16/M04 A3034 RMK A01 T01561043  RH  025%=      5-min Rain = 0
KCR1 131918Z 04006KT 15/M05 A3034 RMK A01 T01521045  RH  025%=      5-min Rain = 0
KCR1 131919Z 03008KT 15/M04 A3034 RMK A01 T01501043  RH  026%=      5-min Rain = 0
KCR1 131920Z 03008KT 15/M04 A3034 RMK A01 T01521043  RH  026%=      5-min Rain = 0
KCR1 131921Z 06006KT 15/M04 A3034 RMK A01 T01541042  RH  026%=      5-min Rain = 0
KCR1 131922Z 07010KT 16/M04 A3033 RMK A01 T01551040  RH  026%=      5-min Rain = 0
KCR1 131923Z 08009KT 16/M04 A3033 RMK A01 T01571041  RH  025%=      5-min Rain = 0
KCR1 131924Z 08010KT 16/M04 A3033 RMK A01 T01561042  RH  025%=      5-min Rain = 0
KCR1 131925Z 08008KT 15/M04 A3033 RMK A01 T01541043  RH  025%=      5-min Rain = 0
KCR1 131926Z 08007KT 15/M04 A3033 RMK A01 T01521043  RH  026%=      5-min Rain = 0
KCR1 131927Z 10008KT 15/M04 A3033 RMK A01 T01541040  RH  026%=      5-min Rain = 0
KCR1 131928Z 10007KT 16/M04 A3033 RMK A01 T01571040  RH  026%=      5-min Rain = 0
KCR1 131929Z 10005KT 16/M04 A3033 RMK A01 T01581041  RH  025%=      5-min Rain = 0
KCR1 131930Z 09004KT 16/M04 A3033 RMK A01 T01551043  RH  025%=      5-min Rain = 0
KCR1 131931Z 08007KT 16/M04 A3033 RMK A01 T01561040  RH  026%=      5-min Rain = 0
KCR1 131932Z 08006KT 16/M04 A3033 RMK A01 T01571042  RH  025%=      5-min Rain = 0
KCR1 131933Z 02005KT 16/M04 A3033 RMK A01 T01581040  RH  025%=      5-min Rain = 0
KCR1 131934Z 01006KT 16/M04 A3033 RMK A01 T01591042  RH  025%=      5-min Rain = 0
KCR1 131935Z 01005KT 16/M04 A3033 RMK A01 T01571044  RH  025%=      5-min Rain = 0
KCR1 131936Z 01007KT 16/M04 A3033 RMK A01 T01561042  RH  025%=      5-min Rain = 0
KCR1 131937Z 02008KT 16/M04 A3033 RMK A01 T01571042  RH  025%=      5-min Rain = 0
KCR1 131938Z 04007KT 16/M04 A3033 RMK A01 T01581044  RH  025%=      5-min Rain = 0
KCR1 131939Z 05007KT 16/M04 A3033 RMK A01 T01581042  RH  025%=      5-min Rain = 0
KCR1 131940Z 07010KT 16/M04 A3033 RMK A01 T01611041  RH  025%=      5-min Rain = 0
KCR1 131941Z 08009KT 16/M04 A3033 RMK A01 T01611042  RH  025%=      5-min Rain = 0
KCR1 131942Z 07007KT 16/M04 A3033 RMK A01 T01611041  RH  025%=      5-min Rain = 0
KCR1 131943Z 09007KT 16/M04 A3033 RMK A01 T01601042  RH  025%=      5-min Rain = 0
KCR1 131944Z 09005KT 16/M04 A3033 RMK A01 T01611040  RH  025%=      5-min Rain = 0
KCR1 131945Z 08006KT 16/M04 A3033 RMK A01 T01631042  RH  024%=      5-min Rain = 0
KCR1 131946Z 04004KT 16/M04 A3033 RMK A01 T01611043  RH  024%=      5-min Rain = 0
KCR1 131947Z 04003KT 16/M04 A3033 RMK A01 T01591044  RH  024%=      5-min Rain = 0
KCR1 131948Z 01004KT 16/M05 A3033 RMK A01 T01571045  RH  025%=      5-min Rain = 0
KCR1 131949Z 03004KT 16/M05 A3032 RMK A01 T01561046  RH  025%=      5-min Rain = 0
KCR1 131950Z 07006KT 16/M05 A3032 RMK A01 T01561045  RH  025%=      5-min Rain = 0
KCR1 131951Z 09005KT 16/M05 A3032 RMK A01 T01571046  RH  024%=      5-min Rain = 0
KCR1 131952Z 06007KT 16/M05 A3032 RMK A01 T01561046  RH  024%=      5-min Rain = 0
KCR1 131953Z 09007KT 16/M04 A3032 RMK A01 T01591043  RH  025%=      5-min Rain = 0
KCR1 131954Z 08009KT 16/M04 A3032 RMK A01 T01641042  RH  024%=      5-min Rain = 0
KCR1 131955Z 09008KT 17/M04 A3032 RMK A01 T01661043  RH  024%=      5-min Rain = 0
KCR1 131956Z 08006KT 17/M04 A3032 RMK A01 T01661043  RH  024%=      5-min Rain = 0
KCR1 131957Z 05009KT 17/M05 A3032 RMK A01 T01661045  RH  023%=      5-min Rain = 0
KCR1 131958Z 03007KT 17/M05 A3032 RMK A01 T01651045  RH  023%=      5-min Rain = 0
KCR1 131959Z 04009KT 16/M05 A3032 RMK A01 T01631045  RH  024%=      5-min Rain = 0
KCR1 132000Z 04011KT 16/M04 A3032 RMK A01 T01641043  RH  024%=      5-min Rain = 0
KCR1 132001Z 06009KT 16/M05 A3032 RMK A01 T01631046  RH  023%=      5-min Rain = 0
KCR1 132002Z 06005KT 16/M05 A3032 RMK A01 T01611047  RH  024%=      5-min Rain = 0
KCR1 132003Z 05010KT 16/M05 A3032 RMK A01 T01601045  RH  024%=      5-min Rain = 0
KCR1 132004Z 04008KT 16/M05 A3031 RMK A01 T01611046  RH  024%=      5-min Rain = 0
KCR1 132005Z 06007KT 16/M05 A3032 RMK A01 T01621045  RH  024%=      5-min Rain = 0
KCR1 132006Z 04005KT 16/M05 A3031 RMK A01 T01631046  RH  023%=      5-min Rain = 0
KCR1 132007Z 08006KT 16/M05 A3031 RMK A01 T01621047  RH  023%=      5-min Rain = 0
KCR1 132008Z 06005KT 16/M05 A3031 RMK A01 T01621045  RH  024%=      5-min Rain = 0
KCR1 132009Z 06008KT 16/M04 A3031 RMK A01 T01641044  RH  024%=      5-min Rain = 0
KCR1 132010Z 08007KT 16/M05 A3031 RMK A01 T01641046  RH  023%=      5-min Rain = 0
KCR1 132011Z 10003KT 16/M05 A3031 RMK A01 T01601049  RH  023%=      5-min Rain = 0
KCR1 132012Z 05005KT 16/M05 A3031 RMK A01 T01601045  RH  024%=      5-min Rain = 0
KCR1 132013Z 06010KT 16/M05 A3031 RMK A01 T01621045  RH  024%=      5-min Rain = 0
KCR1 132014Z 06013KT 17/M04 A3031 RMK A01 T01651044  RH  024%=      5-min Rain = 0
KCR1 132015Z 05012KT 17/M05 A3031 RMK A01 T01651045  RH  023%=      5-min Rain = 0
KCR1 132016Z 04010G15KT 17/M05 A3031 RMK A01 T01651046  RH  023%=      5-min Rain = 0
KCR1 132017Z 07009KT 17/M04 A3031 RMK A01 T01661044  RH  023%=      5-min Rain = 0
KCR1 132018Z 07005KT 17/M05 A3031 RMK A01 T01651048  RH  023%=      5-min Rain = 0
KCR1 132019Z 04009G14KT 16/M05 A3031 RMK A01 T01631046  RH  024%=      5-min Rain = 0
KCR1 132020Z 05012KT 17/M04 A3031 RMK A01 T01661043  RH  024%=      5-min Rain = 0
KCR1 132021Z 06008KT 17/M05 A3031 RMK A01 T01671046  RH  023%=      5-min Rain = 0
KCR1 132022Z 06008KT 16/M05 A3031 RMK A01 T01641047  RH  023%=      5-min Rain = 0
KCR1 132023Z 04003KT 16/M05 A3031 RMK A01 T01631047  RH  023%=      5-min Rain = 0
KCR1 132024Z 05006KT 16/M05 A3031 RMK A01 T01621046  RH  024%=      5-min Rain = 0
KCR1 132025Z 05005KT 16/M05 A3031 RMK A01 T01611047  RH  024%=      5-min Rain = 0
KCR1 132026Z 06006KT 16/M04 A303 RMK A01 T01621044  RH  024%=      5-min Rain = 0
KCR1 132027Z 08009KT 17/M04 A303 RMK A01 T01671042  RH  024%=      5-min Rain = 0
KCR1 132028Z 03010KT 17/M04 A303 RMK A01 T01701042  RH  023%=      5-min Rain = 0
KCR1 132029Z 03010KT 17/M05 A303 RMK A01 T01701045  RH  023%=      5-min Rain = 0
KCR1 132030Z 05011KT 17/M04 A303 RMK A01 T01691044  RH  023%=      5-min Rain = 0
KCR1 132031Z 06009KT 17/M05 A303 RMK A01 T01691045  RH  023%=      5-min Rain = 0
KCR1 132032Z 06008KT 17/M05 A303 RMK A01 T01661047  RH  023%=      5-min Rain = 0
KCR1 132033Z 05011KT 17/M04 A303 RMK A01 T01671042  RH  024%=      5-min Rain = 0
KCR1 132034Z 04010KT 17/M04 A303 RMK A01 T01741040  RH  023%=      5-min Rain = 0
KCR1 132035Z 03010KT 18/M04 A303 RMK A01 T01751044  RH  022%=      5-min Rain = 0
KCR1 132036Z 03010KT 17/M05 A303 RMK A01 T01701046  RH  022%=      5-min Rain = 0
KCR1 132037Z 01011KT 17/M05 A303 RMK A01 T01691045  RH  023%=      5-min Rain = 0
KCR1 132038Z 03009KT 17/M05 A303 RMK A01 T01671047  RH  023%=      5-min Rain = 0
KCR1 132039Z 05009KT 16/M05 A303 RMK A01 T01641046  RH  023%=      5-min Rain = 0
KCR1 132040Z 07011KT 17/M04 A303 RMK A01 T01661043  RH  023%=      5-min Rain = 0
KCR1 132041Z 08008KT 17/M05 A303 RMK A01 T01681045  RH  023%=      5-min Rain = 0
KCR1 132042Z 06006KT 17/M05 A303 RMK A01 T01671045  RH  023%=      5-min Rain = 0
KCR1 132043Z 09008KT 17/M04 A303 RMK A01 T01691044  RH  023%=      5-min Rain = 0
KCR1 132044Z 07011KT 17/M05 A303 RMK A01 T01701045  RH  023%=      5-min Rain = 0
KCR1 132045Z 05012KT 17/M04 A303 RMK A01 T01701044  RH  023%=      5-min Rain = 0
KCR1 132046Z 07010KT 17/M05 A303 RMK A01 T01701045  RH  023%=      5-min Rain = 0
KCR1 132047Z 07007KT 17/M05 A303 RMK A01 T01671047  RH  023%=      5-min Rain = 0
KCR1 132048Z 08006KT 17/M05 A303 RMK A01 T01661046  RH  023%=      5-min Rain = 0
KCR1 132049Z 08006G15KT 16/M05 A303 RMK A01 T01641048  RH  023%=      5-min Rain = 0
KCR1 132050Z 07012KT 16/M05 A303 RMK A01 T01641045  RH  023%=      5-min Rain = 0
KCR1 132051Z 07013KT 17/M05 A303 RMK A01 T01661046  RH  023%=      5-min Rain = 0
KCR1 132052Z 06011KT 17/M05 A303 RMK A01 T01671045  RH  023%=      5-min Rain = 0
KCR1 132053Z 06012KT 17/M04 A303 RMK A01 T01711043  RH  023%=      5-min Rain = 0
KCR1 132054Z 05011KT 17/M04 A303 RMK A01 T01731044  RH  022%=      5-min Rain = 0
KCR1 132055Z 05010KT 17/M04 A303 RMK A01 T01731044  RH  022%=      5-min Rain = 0
KCR1 132056Z 03008KT 17/M05 A303 RMK A01 T01721046  RH  022%=      5-min Rain = 0
KCR1 132057Z 04008G16KT 17/M05 A3029 RMK A01 T01701046  RH  022%=      5-min Rain = 0
KCR1 132058Z 05014KT 17/M05 A3029 RMK A01 T01701045  RH  023%=      5-min Rain = 0
KCR1 132059Z 07010KT 17/M05 A3029 RMK A01 T01691046  RH  023%=      5-min Rain = 0
KCR1 132100Z 05007KT 17/M05 A3029 RMK A01 T01681046  RH  023%=      5-min Rain = 0
KCR1 132101Z 01008KT 17/M05 A3029 RMK A01 T01691045  RH  023%=      5-min Rain = 0
KCR1 132102Z 04010KT 17/M04 A3029 RMK A01 T01701044  RH  023%=      5-min Rain = 0
KCR1 132103Z 04010KT 17/M04 A3029 RMK A01 T01721044  RH  023%=      5-min Rain = 0
KCR1 132104Z 06012KT 18/M04 A3029 RMK A01 T01761039  RH  023%=      5-min Rain = 0
KCR1 132105Z 07012KT 18/M04 A3029 RMK A01 T01801042  RH  022%=      5-min Rain = 0
KCR1 132106Z 04011KT 18/M05 A3029 RMK A01 T01771046  RH  021%=      5-min Rain = 0
KCR1 132107Z 04009KT 17/M05 A3029 RMK A01 T01721048  RH  022%=      5-min Rain = 0
KCR1 132108Z 06006KT 17/M05 A3029 RMK A01 T01691047  RH  022%=      5-min Rain = 0
KCR1 132109Z 07010KT 17/M05 A3029 RMK A01 T01691045  RH  023%=      5-min Rain = 0
KCR1 132110Z 07012G18KT 17/M05 A3029 RMK A01 T01701045  RH  023%=      5-min Rain = 0
KCR1 132111Z 06013KT 17/M05 A3029 RMK A01 T01711045  RH  022%=      5-min Rain = 0
KCR1 132112Z 06010KT 17/M05 A3029 RMK A01 T01711046  RH  022%=      5-min Rain = 0
KCR1 132113Z 05009KT 17/M05 A3029 RMK A01 T01701046  RH  023%=      5-min Rain = 0
KCR1 132114Z 06009KT 17/M04 A3029 RMK A01 T01711044  RH  023%=      5-min Rain = 0
KCR1 132115Z 03011KT 17/M05 A3029 RMK A01 T01721045  RH  022%=      5-min Rain = 0
KCR1 132116Z 04014KT 17/M05 A3029 RMK A01 T01721045  RH  022%=      5-min Rain = 0
KCR1 132117Z 04014KT 18/M04 A3029 RMK A01 T01751043  RH  022%=      5-min Rain = 0
KCR1 132118Z 03012KT 17/M05 A3029 RMK A01 T01741045  RH  022%=      5-min Rain = 0
KCR1 132119Z 03013KT 17/M05 A303 RMK A01 T01731045  RH  022%=      5-min Rain = 0
KCR1 132120Z 02010KT 17/M05 A303 RMK A01 T01731045  RH  022%=      5-min Rain = 0
KCR1 132121Z 02008KT 17/M05 A3029 RMK A01 T01711046  RH  022%=      5-min Rain = 0
KCR1 132122Z 04013KT 17/M05 A3029 RMK A01 T01701045  RH  023%=      5-min Rain = 0
KCR1 132123Z 02012KT 17/M05 A3029 RMK A01 T01711045  RH  022%=      5-min Rain = 0
KCR1 132124Z 02011KT 17/M05 A3029 RMK A01 T01731046  RH  022%=      5-min Rain = 0
KCR1 132125Z 03010KT 17/M05 A3029 RMK A01 T01721046  RH  022%=      5-min Rain = 0
KCR1 132126Z 04011KT 17/M05 A3029 RMK A01 T01711046  RH  022%=      5-min Rain = 0
KCR1 132127Z 04010KT 17/M05 A3029 RMK A01 T01711046  RH  022%=      5-min Rain = 0
KCR1 132128Z 04011KT 17/M05 A3029 RMK A01 T01701046  RH  022%=      5-min Rain = 0
KCR1 132129Z 04007KT 17/M05 A3029 RMK A01 T01701047  RH  022%=      5-min Rain = 0
KCR1 132130Z 06006KT 17/M05 A3029 RMK A01 T01691047  RH  023%=      5-min Rain = 0
KCR1 132131Z 03005KT 17/M05 A3029 RMK A01 T01681046  RH  023%=      5-min Rain = 0
KCR1 132132Z 04007KT 17/M05 A3029 RMK A01 T01701045  RH  023%=      5-min Rain = 0
KCR1 132133Z 05008KT 17/M04 A3029 RMK A01 T01731043  RH  023%=      5-min Rain = 0
KCR1 132134Z 05010KT 18/M04 A3029 RMK A01 T01771043  RH  022%=      5-min Rain = 0
KCR1 132135Z 06007KT 18/M05 A3029 RMK A01 T01771045  RH  022%=      5-min Rain = 0
KCR1 132136Z 04007KT 18/M05 A3029 RMK A01 T01761046  RH  022%=      5-min Rain = 0
KCR1 132137Z 04009KT 18/M04 A3029 RMK A01 T01761043  RH  022%=      5-min Rain = 0
KCR1 132138Z 04010KT 18/M04 A3029 RMK A01 T01791044  RH  022%=      5-min Rain = 0
KCR1 132139Z 03010KT 18/M05 A3029 RMK A01 T01761047  RH  021%=      5-min Rain = 0
KCR1 132140Z 05012KT 17/M05 A3029 RMK A01 T01741047  RH  022%=      5-min Rain = 0
KCR1 132141Z 06011KT 17/M05 A3029 RMK A01 T01741046  RH  022%=      5-min Rain = 0
KCR1 132142Z 07012KT 17/M05 A3029 RMK A01 T01741048  RH  022%=      5-min Rain = 0
KCR1 132143Z 08011KT 17/M05 A3029 RMK A01 T01721049  RH  022%=      5-min Rain = 0
KCR1 132144Z 07011KT 17/M05 A3029 RMK A01 T01721049  RH  022%=      5-min Rain = 0
KCR1 132145Z 05008KT 17/M05 A3029 RMK A01 T01701050  RH  022%=      5-min Rain = 0
KCR1 132146Z 04005KT 17/M05 A3029 RMK A01 T01701050  RH  022%=      5-min Rain = 0
KCR1 132147Z 08006KT 17/M05 A3029 RMK A01 T01701048  RH  022%=      5-min Rain = 0
KCR1 132148Z 08007KT 17/M05 A3029 RMK A01 T01721049  RH  022%=      5-min Rain = 0
KCR1 132149Z 08011KT 17/M05 A3029 RMK A01 T01741048  RH  022%=      5-min Rain = 0
KCR1 132150Z 08011KT 18/M05 A3029 RMK A01 T01751049  RH  021%=      5-min Rain = 0
KCR1 132151Z 06011G17KT 18/M05 A3029 RMK A01 T01771049  RH  021%=      5-min Rain = 0
KCR1 132152Z 05014G19KT 18/M05 A3029 RMK A01 T01781047  RH  021%=      5-min Rain = 0
KCR1 132153Z 05011KT 18/M05 A3029 RMK A01 T01781048  RH  021%=      5-min Rain = 0
KCR1 132154Z 06012KT 18/M05 A3029 RMK A01 T01761051  RH  021%=      5-min Rain = 0
KCR1 132155Z 07012KT 17/M05 A3029 RMK A01 T01731052  RH  021%=      5-min Rain = 0
KCR1 132156Z 07011KT 17/M05 A3029 RMK A01 T01701052  RH  021%=      5-min Rain = 0
KCR1 132157Z 07008KT 17/M05 A3029 RMK A01 T01691053  RH  022%=      5-min Rain = 0
KCR1 132158Z 06013KT 17/M05 A3029 RMK A01 T01681051  RH  022%=      5-min Rain = 0
KCR1 132159Z 06011KT 17/M05 A3029 RMK A01 T01731049  RH  022%=      5-min Rain = 0
KCR1 132200Z 07009KT 17/M05 A3029 RMK A01 T01741050  RH  021%=      5-min Rain = 0
KCR1 132201Z 07010KT 17/M05 A3029 RMK A01 T01741051  RH  021%=      5-min Rain = 0
KCR1 132202Z 07009KT 17/M05 A3029 RMK A01 T01721052  RH  021%=      5-min Rain = 0
KCR1 132203Z 05008KT 17/M05 A3029 RMK A01 T01701052  RH  021%=      5-min Rain = 0
KCR1 132204Z 04005KT 17/M05 A3029 RMK A01 T01681053  RH  021%=      5-min Rain = 0
KCR1 132205Z 04005KT 17/M05 A3029 RMK A01 T01671052  RH  022%=      5-min Rain = 0
KCR1 132206Z 04011KT 17/M05 A3029 RMK A01 T01701049  RH  022%=      5-min Rain = 0
KCR1 132207Z 03009KT 17/M05 A3029 RMK A01 T01721051  RH  021%=      5-min Rain = 0
KCR1 132208Z 04010KT 17/M05 A3029 RMK A01 T01721051  RH  021%=      5-min Rain = 0
KCR1 132209Z 06009KT 17/M05 A3029 RMK A01 T01711051  RH  021%=      5-min Rain = 0
KCR1 132210Z 06008KT 17/M05 A3029 RMK A01 T01711051  RH  021%=      5-min Rain = 0
KCR1 132211Z 02011G17KT 17/M05 A3029 RMK A01 T01711050  RH  022%=      5-min Rain = 0
KCR1 132212Z 03009KT 17/M05 A3029 RMK A01 T01711052  RH  021%=      5-min Rain = 0
KCR1 132213Z 02009KT 17/M05 A3029 RMK A01 T01691051  RH  022%=      5-min Rain = 0
KCR1 132214Z 02012KT 17/M05 A3029 RMK A01 T01681051  RH  022%=      5-min Rain = 0
KCR1 132215Z 03014KT 17/M05 A3029 RMK A01 T01711048  RH  022%=      5-min Rain = 0
KCR1 132216Z 04012KT 17/M05 A3029 RMK A01 T01721050  RH  021%=      5-min Rain = 0
KCR1 132217Z 05012KT 17/M05 A3029 RMK A01 T01711052  RH  021%=      5-min Rain = 0
KCR1 132218Z 05009KT 17/M05 A3029 RMK A01 T01691053  RH  022%=      5-min Rain = 0
KCR1 132219Z 05009KT 17/M05 A3029 RMK A01 T01681052  RH  022%=      5-min Rain = 0
KCR1 132220Z 04009KT 17/M05 A3029 RMK A01 T01681050  RH  022%=      5-min Rain = 0
KCR1 132221Z 04011KT 17/M05 A3028 RMK A01 T01691050  RH  022%=      5-min Rain = 0
KCR1 132222Z 04011KT 17/M05 A3028 RMK A01 T01701050  RH  022%=      5-min Rain = 0
KCR1 132223Z 02013KT 17/M05 A3028 RMK A01 T01711049  RH  022%=      5-min Rain = 0
KCR1 132224Z 03011KT 17/M05 A3028 RMK A01 T01711049  RH  022%=      5-min Rain = 0
KCR1 132225Z 03011KT 17/M05 A3028 RMK A01 T01711050  RH  022%=      5-min Rain = 0
KCR1 132226Z 03014KT 17/M05 A3028 RMK A01 T01701050  RH  022%=      5-min Rain = 0
KCR1 132227Z 04011KT 17/M05 A3028 RMK A01 T01701051  RH  022%=      5-min Rain = 0
KCR1 132228Z 03009KT 17/M05 A3028 RMK A01 T01691050  RH  022%=      5-min Rain = 0
KCR1 132229Z 06010G16KT 17/M05 A3028 RMK A01 T01691049  RH  022%=      5-min Rain = 0
KCR1 132230Z 04012KT 17/M05 A3028 RMK A01 T01691049  RH  022%=      5-min Rain = 0
KCR1 132231Z 04011KT 17/M05 A3028 RMK A01 T01701048  RH  022%=      5-min Rain = 0
KCR1 132232Z 03010KT 17/M05 A3028 RMK A01 T01701048  RH  022%=      5-min Rain = 0
KCR1 132233Z 03007KT 17/M05 A3028 RMK A01 T01691049  RH  022%=      5-min Rain = 0
KCR1 132234Z 03007KT 17/M05 A3028 RMK A01 T01671050  RH  022%=      5-min Rain = 0
KCR1 132235Z 03006KT 17/M05 A3028 RMK A01 T01671049  RH  022%=      5-min Rain = 0
KCR1 132236Z 04008G14KT 17/M05 A3028 RMK A01 T01671048  RH  022%=      5-min Rain = 0
KCR1 132237Z 06010KT 17/M05 A3028 RMK A01 T01691048  RH  022%=      5-min Rain = 0
KCR1 132238Z 07008KT 17/M05 A3028 RMK A01 T01691049  RH  022%=      5-min Rain = 0
KCR1 132239Z 07010KT 17/M05 A3028 RMK A01 T01681049  RH  022%=      5-min Rain = 0
KCR1 132240Z 08008KT 17/M05 A3028 RMK A01 T01691049  RH  022%=      5-min Rain = 0
KCR1 132241Z 07005KT 17/M05 A3028 RMK A01 T01691049  RH  022%=      5-min Rain = 0
KCR1 132242Z 07007KT 17/M05 A3028 RMK A01 T01691050  RH  022%=      5-min Rain = 0
KCR1 132243Z 04010KT 17/M05 A3028 RMK A01 T01691049  RH  022%=      5-min Rain = 0
KCR1 132244Z 04008KT 17/M05 A3028 RMK A01 T01701049  RH  022%=      5-min Rain = 0
KCR1 132245Z 05009KT 17/M05 A3028 RMK A01 T01691050  RH  022%=      5-min Rain = 0
KCR1 132246Z 03011KT 17/M05 A3028 RMK A01 T01691048  RH  022%=      5-min Rain = 0
KCR1 132247Z 04011KT 17/M05 A3028 RMK A01 T01711049  RH  022%=      5-min Rain = 0
KCR1 132248Z 04008KT 17/M05 A3028 RMK A01 T01691051  RH  022%=      5-min Rain = 0
KCR1 132249Z 04006KT 17/M05 A3028 RMK A01 T01671052  RH  022%=      5-min Rain = 0
KCR1 132250Z 04011KT 17/M05 A3028 RMK A01 T01671050  RH  022%=      5-min Rain = 0
KCR1 132251Z 03011KT 17/M05 A3028 RMK A01 T01681050  RH  022%=      5-min Rain = 0
KCR1 132252Z 04011KT 17/M05 A3028 RMK A01 T01681050  RH  022%=      5-min Rain = 0
KCR1 132253Z 02011KT 17/M05 A3028 RMK A01 T01691050  RH  022%=      5-min Rain = 0
KCR1 132254Z 03011KT 17/M05 A3028 RMK A01 T01701050  RH  022%=      5-min Rain = 0
KCR1 132255Z 05010KT 17/M05 A3028 RMK A01 T01701050  RH  022%=      5-min Rain = 0
KCR1 132256Z 04011KT 17/M05 A3028 RMK A01 T01701050  RH  022%=      5-min Rain = 0
KCR1 132257Z 04012KT 17/M05 A3028 RMK A01 T01701050  RH  022%=      5-min Rain = 0
KCR1 132258Z 02010KT 17/M05 A3028 RMK A01 T01691050  RH  022%=      5-min Rain = 0
KCR1 132259Z 02011KT 17/M05 A3028 RMK A01 T01681050  RH  022%=      5-min Rain = 0
KCR1 132300Z 04009KT 17/M05 A3028 RMK A01 T01681051  RH  022%=      5-min Rain = 0
KCR1 132301Z 05012G17KT 17/M05 A3028 RMK A01 T01681050  RH  022%=      5-min Rain = 0
KCR1 132302Z 04013KT 17/M05 A3028 RMK A01 T01681051  RH  022%=      5-min Rain = 0
KCR1 132303Z 04013KT 17/M05 A3029 RMK A01 T01671051  RH  022%=      5-min Rain = 0
KCR1 132304Z 04011KT 17/M05 A3029 RMK A01 T01671051  RH  022%=      5-min Rain = 0
KCR1 132305Z 04012KT 17/M05 A3028 RMK A01 T01671051  RH  022%=      5-min Rain = 0
KCR1 132306Z 04011KT 17/M05 A3029 RMK A01 T01661051  RH  022%=      5-min Rain = 0
KCR1 132307Z 04013KT 17/M05 A3029 RMK A01 T01661051  RH  022%=      5-min Rain = 0
KCR1 132308Z 05010KT 17/M05 A3029 RMK A01 T01651052  RH  022%=      5-min Rain = 0
KCR1 132309Z 04010KT 17/M05 A3029 RMK A01 T01661051  RH  022%=      5-min Rain = 0
KCR1 132310Z 03009KT 17/M05 A3029 RMK A01 T01661052  RH  022%=      5-min Rain = 0
KCR1 132311Z 03009KT 17/M05 A3029 RMK A01 T01661051  RH  022%=      5-min Rain = 0
KCR1 132312Z 03007KT 17/M05 A3029 RMK A01 T01651052  RH  022%=      5-min Rain = 0
KCR1 132313Z 04008KT 17/M05 A3029 RMK A01 T01651051  RH  022%=      5-min Rain = 0
KCR1 132314Z 04010KT 17/M05 A3029 RMK A01 T01651051  RH  022%=      5-min Rain = 0
KCR1 132315Z 04013KT 17/M05 A3029 RMK A01 T01661052  RH  022%=      5-min Rain = 0
KCR1 132316Z 05013KT 17/M05 A3029 RMK A01 T01661052  RH  022%=      5-min Rain = 0
KCR1 132317Z 05011KT 17/M05 A3029 RMK A01 T01651052  RH  022%=      5-min Rain = 0
KCR1 132318Z 05010KT 16/M05 A3029 RMK A01 T01641054  RH  022%=      5-min Rain = 0
KCR1 132319Z 06009KT 16/M05 A3029 RMK A01 T01631054  RH  022%=      5-min Rain = 0
KCR1 132320Z 05012KT 16/M05 A3029 RMK A01 T01631053  RH  022%=      5-min Rain = 0
KCR1 132321Z 04010KT 16/M05 A3029 RMK A01 T01641053  RH  022%=      5-min Rain = 0
KCR1 132322Z 04009KT 16/M05 A3029 RMK A01 T01641053  RH  022%=      5-min Rain = 0
KCR1 132323Z 02009KT 16/M05 A3029 RMK A01 T01631053  RH  022%=      5-min Rain = 0
KCR1 132324Z 04009KT 16/M05 A3029 RMK A01 T01631053  RH  022%=      5-min Rain = 0
KCR1 132325Z 04009KT 16/M05 A3029 RMK A01 T01641053  RH  022%=      5-min Rain = 0
KCR1 132326Z 04012KT 16/M05 A3029 RMK A01 T01641053  RH  022%=      5-min Rain = 0
KCR1 132327Z 04010KT 16/M05 A3029 RMK A01 T01641054  RH  022%=      5-min Rain = 0
KCR1 132328Z 03010KT 16/M05 A3029 RMK A01 T01641054  RH  022%=      5-min Rain = 0
KCR1 132329Z 04010KT 16/M05 A3029 RMK A01 T01641054  RH  022%=      5-min Rain = 0
KCR1 132330Z 07009KT 16/M05 A3029 RMK A01 T01641053  RH  022%=      5-min Rain = 0
KCR1 132331Z 07010KT 16/M05 A3029 RMK A01 T01641054  RH  022%=      5-min Rain = 0
KCR1 132332Z 07009KT 16/M05 A3029 RMK A01 T01631054  RH  022%=      5-min Rain = 0
KCR1 132333Z 07009KT 16/M05 A3029 RMK A01 T01631054  RH  022%=      5-min Rain = 0
KCR1 132334Z 07010KT 16/M05 A3029 RMK A01 T01631054  RH  022%=      5-min Rain = 0
KCR1 132335Z 07009KT 16/M06 A3029 RMK A01 T01621056  RH  022%=      5-min Rain = 0
KCR1 132336Z 05009KT 16/M06 A3029 RMK A01 T01611056  RH  022%=      5-min Rain = 0
KCR1 132337Z 05009KT 16/M05 A3029 RMK A01 T01621054  RH  022%=      5-min Rain = 0
KCR1 132338Z 04011KT 16/M06 A3028 RMK A01 T01631056  RH  022%=      5-min Rain = 0
KCR1 132339Z 04012KT 16/M06 A3028 RMK A01 T01631057  RH  022%=      5-min Rain = 0
KCR1 132340Z 03010KT 16/M06 A3028 RMK A01 T01621057  RH  022%=      5-min Rain = 0
KCR1 132341Z 03011KT 16/M06 A3028 RMK A01 T01611056  RH  022%=      5-min Rain = 0
KCR1 132342Z 04011KT 16/M06 A3028 RMK A01 T01611057  RH  022%=      5-min Rain = 0
KCR1 132343Z 05010KT 16/M06 A3028 RMK A01 T01611057  RH  022%=      5-min Rain = 0
KCR1 132344Z 06010KT 16/M06 A3028 RMK A01 T01611056  RH  022%=      5-min Rain = 0
KCR1 132345Z 05011KT 16/M06 A3028 RMK A01 T01621058  RH  022%=      5-min Rain = 0
KCR1 132346Z 05009KT 16/M06 A3028 RMK A01 T01611058  RH  022%=      5-min Rain = 0
KCR1 132347Z 05009KT 16/M06 A3028 RMK A01 T01611059  RH  022%=      5-min Rain = 0
KCR1 132348Z 05011KT 16/M06 A3028 RMK A01 T01601059  RH  022%=      5-min Rain = 0
KCR1 132349Z 04011KT 16/M06 A3028 RMK A01 T01601059  RH  022%=      5-min Rain = 0
KCR1 132350Z 05013KT 16/M06 A3028 RMK A01 T01601059  RH  022%=      5-min Rain = 0
KCR1 132351Z 06013KT 16/M06 A3028 RMK A01 T01601059  RH  022%=      5-min Rain = 0
KCR1 132352Z 06011KT 16/M06 A3028 RMK A01 T01591059  RH  022%=      5-min Rain = 0
KCR1 132353Z 06010KT 16/M06 A3028 RMK A01 T01591060  RH  022%=      5-min Rain = 0
KCR1 132354Z 06010KT 16/M06 A3028 RMK A01 T01581060  RH  022%=      5-min Rain = 0
KCR1 132355Z 05009KT 16/M06 A3028 RMK A01 T01581059  RH  022%=      5-min Rain = 0
KCR1 132356Z 05012KT 16/M06 A3028 RMK A01 T01591058  RH  022%=      5-min Rain = 0
KCR1 132357Z 04012KT 16/M06 A3028 RMK A01 T01581060  RH  022%=      5-min Rain = 0
KCR1 132358Z 04011KT 16/M06 A3028 RMK A01 T01581060  RH  022%=      5-min Rain = 0
KCR1 132359Z 05011KT 16/M06 A3028 RMK A01 T01571060  RH  022%=      5-min Rain = 0
KCR1 140000Z 05012KT 16/M06 A3028 RMK A01 T01561060  RH  022%=      5-min Rain = 0
KCR1 140001Z 06011KT 16/M06 A3028 RMK A01 T01571059  RH  022%=      5-min Rain = 0
KCR1 140002Z 05011KT 16/M06 A3028 RMK A01 T01561060  RH  022%=      5-min Rain = 0
KCR1 140003Z 05011KT 16/M06 A3028 RMK A01 T01561059  RH  022%=      5-min Rain = 0
KCR1 140004Z 05010KT 16/M06 A3028 RMK A01 T01561059  RH  022%=      5-min Rain = 0
KCR1 140005Z 06011KT 16/M06 A3028 RMK A01 T01561058  RH  022%=      5-min Rain = 0
KCR1 140006Z 06013KT 16/M06 A3028 RMK A01 T01561058  RH  023%=      5-min Rain = 0
KCR1 140007Z 06010KT 16/M06 A3028 RMK A01 T01551058  RH  023%=      5-min Rain = 0
KCR1 140008Z 04011KT 15/M06 A3028 RMK A01 T01541057  RH  023%=      5-min Rain = 0
KCR1 140009Z 05012KT 15/M06 A3028 RMK A01 T01531057  RH  023%=      5-min Rain = 0
KCR1 140010Z 05011KT 15/M06 A3028 RMK A01 T01531057  RH  023%=      5-min Rain = 0
KCR1 140011Z 05011KT 15/M06 A3028 RMK A01 T01521057  RH  023%=      5-min Rain = 0
KCR1 140012Z 04011KT 15/M06 A3028 RMK A01 T01521057  RH  023%=      5-min Rain = 0
KCR1 140013Z 04010KT 15/M06 A3028 RMK A01 T01521057  RH  023%=      5-min Rain = 0
KCR1 140014Z 05012KT 15/M06 A3028 RMK A01 T01521057  RH  023%=      5-min Rain = 0
KCR1 140015Z 06011KT 15/M06 A3028 RMK A01 T01531057  RH  023%=      5-min Rain = 0
KCR1 140016Z 05010KT 15/M06 A3028 RMK A01 T01531056  RH  023%=      5-min Rain = 0
KCR1 140017Z 06011KT 15/M06 A3028 RMK A01 T01531057  RH  023%=      5-min Rain = 0
KCR1 140018Z 05011KT 15/M06 A3028 RMK A01 T01531057  RH  023%=      5-min Rain = 0
KCR1 140019Z 05010KT 15/M06 A3028 RMK A01 T01521058  RH  023%=      5-min Rain = 0
KCR1 140020Z 05009KT 15/M06 A3028 RMK A01 T01521057  RH  023%=      5-min Rain = 0
KCR1 140021Z 05009KT 15/M06 A3028 RMK A01 T01521057  RH  023%=      5-min Rain = 0
KCR1 140022Z 05008KT 15/M06 A3028 RMK A01 T01521056  RH  023%=      5-min Rain = 0
KCR1 140023Z 05009KT 15/M06 A3029 RMK A01 T01521056  RH  023%=      5-min Rain = 0
KCR1 140024Z 05010KT 15/M06 A3029 RMK A01 T01511057  RH  023%=      5-min Rain = 0
KCR1 140025Z 06011KT 15/M06 A3029 RMK A01 T01511058  RH  023%=      5-min Rain = 0
KCR1 140026Z 06010KT 15/M06 A3029 RMK A01 T01501058  RH  023%=      5-min Rain = 0
KCR1 140027Z 05008KT 15/M06 A3029 RMK A01 T01501057  RH  023%=      5-min Rain = 0
KCR1 140028Z 05009KT 15/M06 A3029 RMK A01 T01491057  RH  024%=      5-min Rain = 0
KCR1 140029Z 05010KT 15/M06 A3029 RMK A01 T01491058  RH  024%=      5-min Rain = 0
KCR1 140030Z 05011KT 15/M06 A3029 RMK A01 T01481058  RH  024%=      5-min Rain = 0
KCR1 140031Z 05010KT 15/M06 A3029 RMK A01 T01481058  RH  024%=      5-min Rain = 0
KCR1 140032Z 06008KT 15/M06 A3029 RMK A01 T01471058  RH  024%=      5-min Rain = 0
KCR1 140033Z 06009KT 15/M06 A3029 RMK A01 T01471058  RH  024%=      5-min Rain = 0
KCR1 140034Z 06010KT 15/M06 A3029 RMK A01 T01461057  RH  024%=      5-min Rain = 0
KCR1 140035Z 05010KT 15/M06 A3029 RMK A01 T01451058  RH  024%=      5-min Rain = 0
KCR1 140036Z 05012KT 15/M06 A3029 RMK A01 T01451057  RH  024%=      5-min Rain = 0
KCR1 140037Z 05011KT 15/M06 A3029 RMK A01 T01451057  RH  024%=      5-min Rain = 0
KCR1 140038Z 05010KT 15/M06 A3029 RMK A01 T01451057  RH  024%=      5-min Rain = 0
KCR1 140039Z 05010KT 14/M06 A3029 RMK A01 T01441057  RH  024%=      5-min Rain = 0
KCR1 140040Z 05010KT 14/M06 A3029 RMK A01 T01431057  RH  025%=      5-min Rain = 0
KCR1 140041Z 05010KT 14/M06 A3029 RMK A01 T01431057  RH  025%=      5-min Rain = 0
KCR1 140042Z 06011KT 14/M06 A3029 RMK A01 T01431057  RH  025%=      5-min Rain = 0
KCR1 140043Z 06009KT 14/M06 A3029 RMK A01 T01431056  RH  025%=      5-min Rain = 0
KCR1 140044Z 06011KT 14/M06 A3029 RMK A01 T01421056  RH  025%=      5-min Rain = 0
KCR1 140045Z 06012KT 14/M06 A3029 RMK A01 T01421056  RH  025%=      5-min Rain = 0
KCR1 140046Z 05010KT 14/M06 A3029 RMK A01 T01421056  RH  025%=      5-min Rain = 0
KCR1 140047Z 05011KT 14/M06 A3029 RMK A01 T01411056  RH  025%=      5-min Rain = 0
KCR1 140048Z 05010KT 14/M06 A3029 RMK A01 T01401056  RH  025%=      5-min Rain = 0
KCR1 140049Z 04011KT 14/M06 A3029 RMK A01 T01401056  RH  025%=      5-min Rain = 0
KCR1 140050Z 04010KT 14/M06 A3029 RMK A01 T01391056  RH  025%=      5-min Rain = 0
KCR1 140051Z 04010KT 14/M06 A3029 RMK A01 T01381056  RH  026%=      5-min Rain = 0
KCR1 140052Z 04010KT 14/M06 A3029 RMK A01 T01381056  RH  026%=      5-min Rain = 0
KCR1 140053Z 05010KT 14/M06 A3029 RMK A01 T01371056  RH  026%=      5-min Rain = 0
KCR1 140054Z 05010KT 14/M06 A3029 RMK A01 T01371056  RH  026%=      5-min Rain = 0
KCR1 140055Z 05009KT 14/M06 A3029 RMK A01 T01361056  RH  026%=      5-min Rain = 0
KCR1 140056Z 05009KT 14/M06 A3029 RMK A01 T01351057  RH  026%=      5-min Rain = 0
KCR1 140057Z 05009KT 13/M06 A3029 RMK A01 T01341057  RH  026%=      5-min Rain = 0
KCR1 140058Z 05009KT 13/M06 A3029 RMK A01 T01341057  RH  026%=      5-min Rain = 0
KCR1 140059Z 05009KT 13/M06 A3029 RMK A01 T01341057  RH  026%=      5-min Rain = 0
KCR1 140100Z 05008KT 13/M06 A3029 RMK A01 T01331057  RH  026%=      5-min Rain = 0
KCR1 140101Z 05008KT 13/M06 A3029 RMK A01 T01321058  RH  026%=      5-min Rain = 0
KCR1 140102Z 05008KT 13/M06 A3029 RMK A01 T01321057  RH  026%=      5-min Rain = 0
KCR1 140103Z 05008KT 13/M06 A3029 RMK A01 T01311058  RH  027%=      5-min Rain = 0
KCR1 140104Z 05008KT 13/M06 A3029 RMK A01 T01301058  RH  027%=      5-min Rain = 0
KCR1 140105Z 05008KT 13/M06 A3029 RMK A01 T01301058  RH  027%=      5-min Rain = 0
KCR1 140106Z 05008KT 13/M06 A3029 RMK A01 T01291058  RH  027%=      5-min Rain = 0
KCR1 140107Z 05008KT 13/M06 A3029 RMK A01 T01281058  RH  027%=      5-min Rain = 0
KCR1 140108Z 05008KT 13/M06 A3029 RMK A01 T01281058  RH  027%=      5-min Rain = 0
KCR1 140109Z 05008KT 13/M06 A3029 RMK A01 T01281058  RH  027%=      5-min Rain = 0
KCR1 140110Z 05008KT 13/M06 A3029 RMK A01 T01271058  RH  027%=      5-min Rain = 0
KCR1 140111Z 04008KT 13/M06 A3029 RMK A01 T01271058  RH  027%=      5-min Rain = 0
KCR1 140112Z 04008KT 13/M06 A3029 RMK A01 T01261059  RH  027%=      5-min Rain = 0
KCR1 140113Z 04008KT 13/M06 A3029 RMK A01 T01251059  RH  027%=      5-min Rain = 0
KCR1 140114Z 04008KT 12/M06 A3029 RMK A01 T01241059  RH  027%=      5-min Rain = 0
KCR1 140115Z 04008KT 12/M06 A3029 RMK A01 T01241058  RH  028%=      5-min Rain = 0
KCR1 140116Z 04008KT 12/M06 A3029 RMK A01 T01231059  RH  028%=      5-min Rain = 0
KCR1 140117Z 04008KT 12/M06 A3029 RMK A01 T01231058  RH  028%=      5-min Rain = 0
KCR1 140118Z 04008KT 12/M06 A3029 RMK A01 T01221059  RH  028%=      5-min Rain = 0
KCR1 140119Z 04008KT 12/M06 A3029 RMK A01 T01221059  RH  028%=      5-min Rain = 0
KCR1 140120Z 04008KT 12/M06 A3029 RMK A01 T01211059  RH  028%=      5-min Rain = 0
KCR1 140121Z 04008KT 12/M06 A3029 RMK A01 T01211059  RH  028%=      5-min Rain = 0
KCR1 140122Z 04008KT 12/M06 A3029 RMK A01 T01211059  RH  028%=      5-min Rain = 0
KCR1 140123Z 04008KT 12/M06 A3029 RMK A01 T01211058  RH  028%=      5-min Rain = 0
KCR1 140124Z 04007KT 12/M06 A3029 RMK A01 T01201058  RH  028%=      5-min Rain = 0
KCR1 140125Z 04007KT 12/M06 A3029 RMK A01 T01191059  RH  028%=      5-min Rain = 0
KCR1 140126Z 04007KT 12/M06 A3029 RMK A01 T01191059  RH  028%=      5-min Rain = 0
KCR1 140127Z 04007KT 12/M06 A3029 RMK A01 T01181059  RH  028%=      5-min Rain = 0
KCR1 140128Z 04007KT 12/M06 A3029 RMK A01 T01181059  RH  029%=      5-min Rain = 0
KCR1 140129Z 04007KT 12/M06 A3029 RMK A01 T01161060  RH  029%=      5-min Rain = 0
KCR1 140130Z 04007KT 12/M06 A3029 RMK A01 T01161060  RH  029%=      5-min Rain = 0
KCR1 140131Z 04007KT 11/M06 A303 RMK A01 T01141060  RH  029%=      5-min Rain = 0
KCR1 140132Z 03007KT 11/M06 A303 RMK A01 T01131061  RH  029%=      5-min Rain = 0
KCR1 140133Z 03007KT 11/M06 A303 RMK A01 T01121061  RH  029%=      5-min Rain = 0
KCR1 140134Z 03007KT 11/M06 A303 RMK A01 T01111061  RH  029%=      5-min Rain = 0
KCR1 140135Z 03007KT 11/M06 A303 RMK A01 T01101061  RH  030%=      5-min Rain = 0
KCR1 140136Z 03007KT 11/M06 A303 RMK A01 T01101061  RH  030%=      5-min Rain = 0
KCR1 140137Z 04007KT 11/M06 A303 RMK A01 T01091061  RH  030%=      5-min Rain = 0
KCR1 140138Z 04007KT 11/M06 A303 RMK A01 T01081061  RH  030%=      5-min Rain = 0
KCR1 140139Z 04007KT 11/M06 A303 RMK A01 T01081061  RH  030%=      5-min Rain = 0
KCR1 140140Z 04007KT 11/M06 A303 RMK A01 T01081060  RH  030%=      5-min Rain = 0
KCR1 140141Z 04007KT 11/M06 A303 RMK A01 T01071061  RH  030%=      5-min Rain = 0
KCR1 140142Z 04007KT 11/M06 A303 RMK A01 T01071060  RH  030%=      5-min Rain = 0
KCR1 140143Z 04007KT 11/M06 A303 RMK A01 T01071060  RH  030%=      5-min Rain = 0
KCR1 140144Z 04007KT 11/M06 A303 RMK A01 T01061060  RH  031%=      5-min Rain = 0
KCR1 140145Z 04007KT 11/M06 A303 RMK A01 T01051060  RH  031%=      5-min Rain = 0
KCR1 140146Z 04007KT 11/M06 A303 RMK A01 T01051061  RH  031%=      5-min Rain = 0
KCR1 140147Z 04007KT 10/M06 A303 RMK A01 T01041061  RH  031%=      5-min Rain = 0
KCR1 140148Z 04007KT 10/M06 A303 RMK A01 T01031060  RH  031%=      5-min Rain = 0
KCR1 140149Z 04007KT 10/M06 A303 RMK A01 T01021061  RH  031%=      5-min Rain = 0
KCR1 140150Z 04007KT 10/M06 A303 RMK A01 T01021060  RH  031%=      5-min Rain = 0
KCR1 140151Z 04007KT 10/M06 A303 RMK A01 T01021060  RH  031%=      5-min Rain = 0
KCR1 140152Z 04007KT 10/M06 A303 RMK A01 T01011060  RH  031%=      5-min Rain = 0
KCR1 140153Z 04007KT 10/M06 A303 RMK A01 T01011060  RH  032%=      5-min Rain = 0
KCR1 140154Z 04007KT 10/M06 A3031 RMK A01 T01011060  RH  032%=      5-min Rain = 0
KCR1 140155Z 04007KT 10/M06 A3031 RMK A01 T01001060  RH  032%=      5-min Rain = 0
KCR1 140156Z 04007KT 10/M06 A3031 RMK A01 T00991061  RH  032%=      5-min Rain = 0
KCR1 140157Z 04007KT 10/M06 A3031 RMK A01 T00991061  RH  032%=      5-min Rain = 0
KCR1 140158Z 04007KT 10/M06 A3031 RMK A01 T00991060  RH  032%=      5-min Rain = 0
KCR1 140159Z 03007KT 10/M06 A3031 RMK A01 T00991061  RH  032%=      5-min Rain = 0
KCR1 140200Z 04007KT 10/M06 A3031 RMK A01 T00991061  RH  032%=      5-min Rain = 0
KCR1 140201Z 04007KT 10/M06 A3031 RMK A01 T00981061  RH  032%=      5-min Rain = 0
KCR1 140202Z 04007KT 10/M06 A3031 RMK A01 T00971061  RH  032%=      5-min Rain = 0
KCR1 140203Z 04007KT 10/M06 A3031 RMK A01 T00971060  RH  032%=      5-min Rain = 0
KCR1 140204Z 04006KT 10/M06 A3031 RMK A01 T00961060  RH  033%=      5-min Rain = 0
KCR1 140205Z 04006KT 10/M06 A3031 RMK A01 T00961060  RH  033%=      5-min Rain = 0
KCR1 140206Z 04006KT 10/M06 A3031 RMK A01 T00961061  RH  033%=      5-min Rain = 0
KCR1 140207Z 04006KT 10/M06 A3031 RMK A01 T00961060  RH  033%=      5-min Rain = 0
KCR1 140208Z 04007KT 10/M06 A3031 RMK A01 T00951060  RH  033%=      5-min Rain = 0
KCR1 140209Z 04007KT 09/M06 A3032 RMK A01 T00941061  RH  033%=      5-min Rain = 0
KCR1 140210Z 04007KT 09/M06 A3032 RMK A01 T00931061  RH  033%=      5-min Rain = 0
KCR1 140211Z 04007KT 09/M06 A3032 RMK A01 T00931061  RH  033%=      5-min Rain = 0
KCR1 140212Z 04007KT 09/M06 A3032 RMK A01 T00921062  RH  033%=      5-min Rain = 0
KCR1 140213Z 04006KT 09/M06 A3032 RMK A01 T00911062  RH  033%=      5-min Rain = 0
KCR1 140214Z 04006KT 09/M06 A3032 RMK A01 T00911062  RH  033%=      5-min Rain = 0
KCR1 140215Z 04006KT 09/M06 A3032 RMK A01 T00911061  RH  034%=      5-min Rain = 0
KCR1 140216Z 04006KT 09/M06 A3032 RMK A01 T00901062  RH  033%=      5-min Rain = 0
KCR1 140217Z 04006KT 09/M06 A3032 RMK A01 T00901062  RH  034%=      5-min Rain = 0
KCR1 140218Z 05006KT 09/M06 A3032 RMK A01 T00891062  RH  034%=      5-min Rain = 0
KCR1 140219Z 05006KT 09/M06 A3032 RMK A01 T00891062  RH  034%=      5-min Rain = 0
KCR1 140220Z 05006KT 09/M06 A3032 RMK A01 T00881062  RH  034%=      5-min Rain = 0
KCR1 140221Z 05006KT 09/M06 A3032 RMK A01 T00881062  RH  034%=      5-min Rain = 0
KCR1 140222Z 05006KT 09/M06 A3032 RMK A01 T00871062  RH  034%=      5-min Rain = 0
KCR1 140223Z 05006KT 09/M06 A3032 RMK A01 T00871062  RH  034%=      5-min Rain = 0
KCR1 140224Z 05006KT 09/M06 A3032 RMK A01 T00871062  RH  034%=      5-min Rain = 0
KCR1 140225Z 05006KT 09/M06 A3032 RMK A01 T00871062  RH  034%=      5-min Rain = 0
KCR1 140226Z 05006KT 09/M06 A3032 RMK A01 T00861062  RH  034%=      5-min Rain = 0
KCR1 140227Z 05006KT 09/M06 A3032 RMK A01 T00861061  RH  035%=      5-min Rain = 0
KCR1 140228Z 05006KT 09/M06 A3032 RMK A01 T00861061  RH  035%=      5-min Rain = 0
KCR1 140229Z 05006KT 09/M06 A3032 RMK A01 T00861061  RH  035%=      5-min Rain = 0
KCR1 140230Z 05006KT 09/M06 A3032 RMK A01 T00861062  RH  035%=      5-min Rain = 0
KCR1 140231Z 05006KT 09/M06 A3032 RMK A01 T00861061  RH  035%=      5-min Rain = 0
KCR1 140232Z 05006KT 09/M06 A3032 RMK A01 T00861061  RH  035%=      5-min Rain = 0
KCR1 140233Z 05006KT 09/M06 A3032 RMK A01 T00861062  RH  034%=      5-min Rain = 0
KCR1 140234Z 06006KT 09/M06 A3032 RMK A01 T00861062  RH  034%=      5-min Rain = 0
KCR1 140235Z 06006KT 09/M06 A3032 RMK A01 T00861062  RH  034%=      5-min Rain = 0
KCR1 140236Z 06006KT 09/M06 A3032 RMK A01 T00861062  RH  034%=      5-min Rain = 0
KCR1 140237Z 06006KT 09/M06 A3032 RMK A01 T00861062  RH  035%=      5-min Rain = 0
KCR1 140238Z 06006KT 09/M06 A3032 RMK A01 T00861062  RH  034%=      5-min Rain = 0
KCR1 140239Z 06007KT 09/M06 A3032 RMK A01 T00861062  RH  034%=      5-min Rain = 0
KCR1 140240Z 06006KT 09/M06 A3032 RMK A01 T00881061  RH  034%=      5-min Rain = 0
KCR1 140241Z 06006KT 09/M06 A3032 RMK A01 T00881062  RH  034%=      5-min Rain = 0
KCR1 140242Z 06006KT 09/M06 A3032 RMK A01 T00881063  RH  034%=      5-min Rain = 0
KCR1 140243Z 07006KT 09/M06 A3032 RMK A01 T00871064  RH  034%=      5-min Rain = 0
KCR1 140244Z 07006KT 09/M06 A3032 RMK A01 T00861064  RH  034%=      5-min Rain = 0
KCR1 140245Z 07006KT 09/M07 A3032 RMK A01 T00851065  RH  034%=      5-min Rain = 0
KCR1 140246Z 07006KT 09/M06 A3032 RMK A01 T00851064  RH  034%=      5-min Rain = 0
KCR1 140247Z 07006KT 08/M06 A3033 RMK A01 T00841063  RH  035%=      5-min Rain = 0
KCR1 140248Z 07006KT 08/M06 A3033 RMK A01 T00831063  RH  035%=      5-min Rain = 0
KCR1 140249Z 07006KT 08/M06 A3033 RMK A01 T00831064  RH  035%=      5-min Rain = 0
KCR1 140250Z 07006KT 08/M06 A3033 RMK A01 T00821064  RH  035%=      5-min Rain = 0
KCR1 140251Z 07006KT 08/M06 A3033 RMK A01 T00821063  RH  035%=      5-min Rain = 0
KCR1 140252Z 06006KT 08/M06 A3033 RMK A01 T00821063  RH  035%=      5-min Rain = 0
KCR1 140253Z 06006KT 08/M06 A3033 RMK A01 T00821063  RH  035%=      5-min Rain = 0
KCR1 140254Z 06006KT 08/M06 A3033 RMK A01 T00811064  RH  035%=      5-min Rain = 0
KCR1 140255Z 06006KT 08/M06 A3033 RMK A01 T00811064  RH  035%=      5-min Rain = 0
KCR1 140256Z 06006KT 08/M06 A3033 RMK A01 T00811064  RH  035%=      5-min Rain = 0
KCR1 140257Z 06006KT 08/M07 A3033 RMK A01 T00811065  RH  035%=      5-min Rain = 0
KCR1 140258Z 06006KT 08/M07 A3033 RMK A01 T00811065  RH  035%=      5-min Rain = 0
KCR1 140259Z 07006KT 08/M06 A3033 RMK A01 T00811064  RH  035%=      5-min Rain = 0
KCR1 140300Z 07006KT 08/M06 A3033 RMK A01 T00811064  RH  035%=      5-min Rain = 0
KCR1 140301Z 06006KT 08/M07 A3033 RMK A01 T00811065  RH  035%=      5-min Rain = 0
KCR1 140302Z 06006KT 08/M07 A3033 RMK A01 T00811066  RH  035%=      5-min Rain = 0
KCR1 140303Z 06006KT 08/M07 A3033 RMK A01 T00811066  RH  035%=      5-min Rain = 0
KCR1 140304Z 06006KT 08/M07 A3033 RMK A01 T00801065  RH  035%=      5-min Rain = 0
KCR1 140305Z 06006KT 08/M06 A3033 RMK A01 T00801064  RH  035%=      5-min Rain = 0
KCR1 140306Z 06006KT 08/M07 A3033 RMK A01 T00801065  RH  035%=      5-min Rain = 0
KCR1 140307Z 06006KT 08/M07 A3033 RMK A01 T00801065  RH  035%=      5-min Rain = 0
KCR1 140308Z 05006KT 08/M07 A3033 RMK A01 T00791065  RH  035%=      5-min Rain = 0
KCR1 140309Z 05006KT 08/M07 A3033 RMK A01 T00781065  RH  036%=      5-min Rain = 0
KCR1 140310Z 05006KT 08/M06 A3033 RMK A01 T00781064  RH  036%=      5-min Rain = 0
KCR1 140311Z 06006KT 08/M06 A3033 RMK A01 T00781064  RH  036%=      5-min Rain = 0
KCR1 140312Z 05006KT 08/M06 A3033 RMK A01 T00781064  RH  036%=      5-min Rain = 0
KCR1 140313Z 06005KT 08/M06 A3033 RMK A01 T00781062  RH  037%=      5-min Rain = 0
KCR1 140314Z 05006KT 08/M06 A3033 RMK A01 T00791062  RH  036%=      5-min Rain = 0
KCR1 140315Z 06005KT 08/M06 A3033 RMK A01 T00791063  RH  036%=      5-min Rain = 0
KCR1 140316Z 06005KT 08/M06 A3033 RMK A01 T00791063  RH  036%=      5-min Rain = 0
KCR1 140317Z 06006KT 08/M06 A3033 RMK A01 T00791064  RH  036%=      5-min Rain = 0
KCR1 140318Z 06006KT 08/M06 A3034 RMK A01 T00781064  RH  036%=      5-min Rain = 0
KCR1 140319Z 06006KT 08/M06 A3034 RMK A01 T00771064  RH  036%=      5-min Rain = 0
KCR1 140320Z 06006KT 08/M06 A3034 RMK A01 T00771064  RH  036%=      5-min Rain = 0
KCR1 140321Z 06006KT 08/M06 A3034 RMK A01 T00761064  RH  036%=      5-min Rain = 0
KCR1 140322Z 06006KT 08/M06 A3034 RMK A01 T00761064  RH  036%=      5-min Rain = 0
KCR1 140323Z 05006KT 08/M06 A3034 RMK A01 T00761064  RH  036%=      5-min Rain = 0
KCR1 140324Z 06006KT 08/M06 A3034 RMK A01 T00761063  RH  037%=      5-min Rain = 0
KCR1 140325Z 06006KT 08/M06 A3034 RMK A01 T00761063  RH  037%=      5-min Rain = 0
KCR1 140326Z 05006KT 08/M06 A3034 RMK A01 T00761063  RH  037%=      5-min Rain = 0
KCR1 140327Z 05006KT 08/M06 A3034 RMK A01 T00771063  RH  036%=      5-min Rain = 0
KCR1 140328Z 05006KT 08/M06 A3034 RMK A01 T00771063  RH  036%=      5-min Rain = 0
KCR1 140329Z 05006KT 08/M06 A3034 RMK A01 T00761063  RH  037%=      5-min Rain = 0
KCR1 140330Z 05006KT 08/M06 A3034 RMK A01 T00761063  RH  037%=      5-min Rain = 0
KCR1 140331Z 06006KT 08/M06 A3034 RMK A01 T00761063  RH  037%=      5-min Rain = 0
KCR1 140332Z 06006KT 08/M06 A3034 RMK A01 T00761063  RH  037%=      5-min Rain = 0
KCR1 140333Z 06006KT 08/M06 A3034 RMK A01 T00761063  RH  037%=      5-min Rain = 0
KCR1 140334Z 06006KT 08/M06 A3034 RMK A01 T00761063  RH  037%=      5-min Rain = 0
KCR1 140335Z 06006KT 08/M06 A3034 RMK A01 T00751063  RH  037%=      5-min Rain = 0
KCR1 140336Z 06006KT 08/M06 A3034 RMK A01 T00751063  RH  037%=      5-min Rain = 0
KCR1 140337Z 06006KT 08/M06 A3034 RMK A01 T00751064  RH  037%=      5-min Rain = 0
KCR1 140338Z 06006KT 07/M07 A3034 RMK A01 T00741065  RH  037%=      5-min Rain = 0
KCR1 140339Z 06006KT 07/M07 A3034 RMK A01 T00741065  RH  037%=      5-min Rain = 0
KCR1 140340Z 06006KT 07/M06 A3034 RMK A01 T00731064  RH  037%=      5-min Rain = 0
KCR1 140341Z 06006KT 07/M07 A3034 RMK A01 T00721066  RH  037%=      5-min Rain = 0
KCR1 140342Z 06006KT 07/M07 A3034 RMK A01 T00711066  RH  037%=      5-min Rain = 0
KCR1 140343Z 05006KT 07/M07 A3034 RMK A01 T00711065  RH  037%=      5-min Rain = 0
KCR1 140344Z 06006KT 07/M07 A3034 RMK A01 T00711065  RH  037%=      5-min Rain = 0
KCR1 140345Z 05006KT 07/M07 A3034 RMK A01 T00701065  RH  038%=      5-min Rain = 0
KCR1 140346Z 05006KT 07/M07 A3034 RMK A01 T00701065  RH  038%=      5-min Rain = 0
KCR1 140347Z 05005KT 07/M07 A3034 RMK A01 T00701065  RH  038%=      5-min Rain = 0
KCR1 140348Z 05005KT 07/M07 A3035 RMK A01 T00701065  RH  038%=      5-min Rain = 0
KCR1 140349Z 05005KT 07/M07 A3035 RMK A01 T00701065  RH  038%=      5-min Rain = 0
KCR1 140350Z 05005KT 07/M07 A3035 RMK A01 T00691065  RH  038%=      5-min Rain = 0
KCR1 140351Z 05005KT 07/M07 A3035 RMK A01 T00691065  RH  038%=      5-min Rain = 0
KCR1 140352Z 05005KT 07/M07 A3035 RMK A01 T00691065  RH  038%=      5-min Rain = 0
KCR1 140353Z 05005KT 07/M06 A3035 RMK A01 T00691064  RH  038%=      5-min Rain = 0
KCR1 140354Z 05005KT 07/M06 A3035 RMK A01 T00691064  RH  038%=      5-min Rain = 0
KCR1 140355Z 05005KT 07/M06 A3035 RMK A01 T00701064  RH  038%=      5-min Rain = 0
KCR1 140356Z 06005KT 07/M07 A3035 RMK A01 T00701065  RH  038%=      5-min Rain = 0
KCR1 140357Z 06005KT 07/M06 A3035 RMK A01 T00701064  RH  038%=      5-min Rain = 0
KCR1 140358Z 06005KT 07/M06 A3035 RMK A01 T00701064  RH  038%=      5-min Rain = 0
KCR1 140359Z 06005KT 07/M06 A3035 RMK A01 T00701064  RH  038%=      5-min Rain = 0
KCR1 140400Z 07005KT 07/M06 A3035 RMK A01 T00701064  RH  038%=      5-min Rain = 0
KCR1 140401Z 07005KT 07/M06 A3034 RMK A01 T00701063  RH  038%=      5-min Rain = 0
KCR1 140402Z 07005KT 07/M06 A3034 RMK A01 T00711063  RH  038%=      5-min Rain = 0
KCR1 140403Z 07005KT 07/M06 A3034 RMK A01 T00711063  RH  038%=      5-min Rain = 0
KCR1 140404Z 07005KT 07/M06 A3034 RMK A01 T00721063  RH  038%=      5-min Rain = 0
KCR1 140405Z 07005KT 07/M06 A3034 RMK A01 T00721063  RH  038%=      5-min Rain = 0
KCR1 140406Z 06004KT 07/M06 A3034 RMK A01 T00721063  RH  038%=      5-min Rain = 0
KCR1 140407Z 07004KT 07/M06 A3034 RMK A01 T00721063  RH  038%=      5-min Rain = 0
KCR1 140408Z 07004KT 07/M06 A3034 RMK A01 T00721063  RH  038%=      5-min Rain = 0
KCR1 140409Z 07004KT 07/M06 A3034 RMK A01 T00721063  RH  038%=      5-min Rain = 0
KCR1 140410Z 07004KT 07/M06 A3035 RMK A01 T00721063  RH  038%=      5-min Rain = 0
KCR1 140411Z 07004KT 07/M06 A3035 RMK A01 T00721063  RH  038%=      5-min Rain = 0
KCR1 140412Z 07004KT 07/M06 A3035 RMK A01 T00711063  RH  038%=      5-min Rain = 0
KCR1 140413Z 07004KT 07/M06 A3035 RMK A01 T00721061  RH  038%=      5-min Rain = 0
KCR1 140414Z 07004KT 07/M06 A3035 RMK A01 T00711061  RH  039%=      5-min Rain = 0
KCR1 140415Z 08003KT 07/M06 A3035 RMK A01 T00721061  RH  038%=      5-min Rain = 0
KCR1 140416Z 09003KT 07/M06 A3034 RMK A01 T00711061  RH  038%=      5-min Rain = 0
KCR1 140417Z 09003KT 07/M06 A3034 RMK A01 T00691062  RH  039%=      5-min Rain = 0
KCR1 140418Z 09003KT 07/M06 A3034 RMK A01 T00681061  RH  039%=      5-min Rain = 0
KCR1 140419Z 09003KT 07/M06 A3034 RMK A01 T00681061  RH  039%=      5-min Rain = 0
KCR1 140420Z 10003KT 07/M06 A3034 RMK A01 T00691060  RH  039%=      5-min Rain = 0
KCR1 140421Z 10004KT 07/M06 A3034 RMK A01 T00691060  RH  039%=      5-min Rain = 0
KCR1 140422Z 10003KT 07/M06 A3034 RMK A01 T00691060  RH  039%=      5-min Rain = 0
KCR1 140423Z 10003KT 07/M06 A3034 RMK A01 T00691060  RH  039%=      5-min Rain = 0
KCR1 140424Z 10003KT 07/M06 A3034 RMK A01 T00691060  RH  039%=      5-min Rain = 0
KCR1 140425Z 10002KT 07/M06 A3034 RMK A01 T00691060  RH  039%=      5-min Rain = 0
KCR1 140426Z 11002KT 07/M06 A3034 RMK A01 T00681060  RH  040%=      5-min Rain = 0
KCR1 140427Z 10002KT 07/M06 A3034 RMK A01 T00671060  RH  040%=      5-min Rain = 0
KCR1 140428Z 10002KT 07/M06 A3034 RMK A01 T00671059  RH  040%=      5-min Rain = 0
KCR1 140429Z 10002KT 07/M06 A3035 RMK A01 T00661059  RH  040%=      5-min Rain = 0
KCR1 140430Z 10002KT 07/M06 A3035 RMK A01 T00671058  RH  040%=      5-min Rain = 0
KCR1 140431Z 10002KT 07/M06 A3035 RMK A01 T00661059  RH  040%=      5-min Rain = 0
KCR1 140432Z 10002KT 07/M06 A3035 RMK A01 T00661059  RH  041%=      5-min Rain = 0
KCR1 140433Z 10002KT 07/M06 A3035 RMK A01 T00661059  RH  041%=      5-min Rain = 0
KCR1 140434Z 10002KT 07/M06 A3035 RMK A01 T00661059  RH  041%=      5-min Rain = 0
KCR1 140435Z 10003KT 07/M06 A3035 RMK A01 T00651059  RH  041%=      5-min Rain = 0
KCR1 140436Z 10003KT 07/M06 A3035 RMK A01 T00651059  RH  040%=      5-min Rain = 0
KCR1 140437Z 10002KT 07/M06 A3035 RMK A01 T00651060  RH  040%=      5-min Rain = 0
KCR1 140438Z 10002KT 07/M06 A3035 RMK A01 T00651061  RH  040%=      5-min Rain = 0
KCR1 140439Z 10003KT 07/M06 A3035 RMK A01 T00651061  RH  040%=      5-min Rain = 0
KCR1 140440Z 10003KT 07/M06 A3035 RMK A01 T00651062  RH  040%=      5-min Rain = 0
KCR1 140441Z 10003KT 07/M06 A3035 RMK A01 T00661061  RH  040%=      5-min Rain = 0
KCR1 140442Z 10003KT 07/M06 A3035 RMK A01 T00661059  RH  040%=      5-min Rain = 0
KCR1 140443Z 10003KT 07/M06 A3035 RMK A01 T00671058  RH  040%=      5-min Rain = 0
KCR1 140444Z 10003KT 07/M06 A3035 RMK A01 T00681058  RH  040%=      5-min Rain = 0
KCR1 140445Z 10003KT 07/M06 A3034 RMK A01 T00681058  RH  040%=      5-min Rain = 0
KCR1 140446Z 10004KT 07/M06 A3034 RMK A01 T00691058  RH  040%=      5-min Rain = 0
KCR1 140447Z 11004KT 07/M06 A3034 RMK A01 T00691057  RH  040%=      5-min Rain = 0
KCR1 140448Z 11004KT 07/M06 A3034 RMK A01 T00701056  RH  040%=      5-min Rain = 0
KCR1 140449Z 11005KT 07/M06 A3034 RMK A01 T00711056  RH  040%=      5-min Rain = 0
KCR1 140450Z 11004KT 07/M06 A3034 RMK A01 T00711057  RH  040%=      5-min Rain = 0
KCR1 140451Z 11005KT 07/M06 A3034 RMK A01 T00711057  RH  040%=      5-min Rain = 0
KCR1 140452Z 11005KT 07/M06 A3034 RMK A01 T00711056  RH  040%=      5-min Rain = 0
KCR1 140453Z 11005KT 07/M06 A3034 RMK A01 T00721055  RH  040%=      5-min Rain = 0
KCR1 140454Z 11005KT 07/M06 A3034 RMK A01 T00721055  RH  040%=      5-min Rain = 0
KCR1 140455Z 11004KT 07/M05 A3034 RMK A01 T00731054  RH  040%=      5-min Rain = 0
KCR1 140456Z 12005KT 07/M05 A3034 RMK A01 T00731054  RH  040%=      5-min Rain = 0
KCR1 140457Z 12005KT 07/M05 A3034 RMK A01 T00731053  RH  040%=      5-min Rain = 0
KCR1 140458Z 12005KT 07/M05 A3034 RMK A01 T00721053  RH  040%=      5-min Rain = 0
KCR1 140459Z 12005KT 07/M05 A3034 RMK A01 T00721054  RH  040%=      5-min Rain = 0
KCR1 140500Z 12005KT 07/M06 A3034 RMK A01 T00711055  RH  040%=      5-min Rain = 0

Page generated in 0.0643 seconds.